Wetterdaten: Sonntag, 17.08.2014
Datum Zeit Temp. Aussen +5cm Feuchte Auss Luftdruck Regen Sonnenschein Regendauer UV Solar Windben
17.08.2014 00:00 12,9 C 11,1 C 91 % 1016,8 hPa 0,0 l/m 0 min 0 min 0,0 UV-I 0 W/m 3,5 km/h (1 Bft)
17.08.2014 00:02 12,9 C 11,1 C 91 % 1016,8 hPa 0,0 l/m 0 min 0 min 0,0 UV-I 0 W/m 0,0 km/h (0 Bft)
17.08.2014 00:05 12,9 C 11,1 C 91 % 1016,7 hPa 0,0 l/m 0 min 0 min 0,0 UV-I 0 W/m 0,0 km/h (0 Bft)
17.08.2014 00:06 12,9 C 11,1 C 91 % 1016,7 hPa 0,0 l/m 0 min 0 min 0,0 UV-I 0 W/m 3,5 km/h (1 Bft)
17.08.2014 00:08 12,8 C 11,1 C 91 % 1016,8 hPa 0,0 l/m 0 min 0 min 0,0 UV-I 0 W/m 10,7 km/h (2 Bft)
17.08.2014 00:10 12,8 C 11,1 C 91 % 1016,8 hPa 0,0 l/m 0 min 0 min 0,0 UV-I 0 W/m 14,2 km/h (3 Bft)
17.08.2014 00:12 12,8 C 11,1 C 91 % 1016,7 hPa 0,0 l/m 0 min 0 min 0,0 UV-I 0 W/m 17,7 km/h (3 Bft)
17.08.2014 00:14 12,8 C 11,1 C 91 % 1016,7 hPa 0,0 l/m 0 min 0 min 0,0 UV-I 0 W/m 14,2 km/h (3 Bft)
17.08.2014 00:16 12,8 C 11,1 C 91 % 1016,6 hPa 0,0 l/m 0 min 0 min 0,0 UV-I 0 W/m 10,7 km/h (2 Bft)
17.08.2014 00:18 12,8 C 11,1 C 91 % 1016,7 hPa 0,0 l/m 0 min 0 min 0,0 UV-I 0 W/m 17,7 km/h (3 Bft)
17.08.2014 00:20 12,8 C 11,1 C 91 % 1016,7 hPa 0,0 l/m 0 min 0 min 0,0 UV-I 0 W/m 21,3 km/h (4 Bft)
17.08.2014 00:22 12,8 C 11,1 C 92 % 1016,6 hPa 0,0 l/m 0 min 0 min 0,0 UV-I 0 W/m 17,7 km/h (3 Bft)
17.08.2014 00:24 12,8 C 11,1 C 91 % 1016,6 hPa 0,0 l/m 0 min 0 min 0,0 UV-I 0 W/m 14,2 km/h (3 Bft)
17.08.2014 00:26 12,8 C 11,1 C 91 % 1016,6 hPa 0,0 l/m 0 min 0 min 0,0 UV-I 0 W/m 14,2 km/h (3 Bft)
17.08.2014 00:28 12,9 C 11,1 C 91 % 1016,6 hPa 0,0 l/m 0 min 0 min 0,0 UV-I 0 W/m 17,7 km/h (3 Bft)
17.08.2014 00:30 12,9 C 11,7 C 91 % 1016,6 hPa 0,0 l/m 0 min 0 min 0,0 UV-I 0 W/m 21,3 km/h (4 Bft)
17.08.2014 00:32 12,9 C 11,7 C 91 % 1016,6 hPa 0,0 l/m 0 min 0 min 0,0 UV-I 0 W/m 21,3 km/h (4 Bft)
17.08.2014 00:34 12,9 C 11,7 C 91 % 1016,5 hPa 0,0 l/m 0 min 0 min 0,0 UV-I 0 W/m 17,7 km/h (3 Bft)
17.08.2014 00:36 13,0 C 11,7 C 91 % 1016,6 hPa 0,0 l/m 0 min 0 min 0,0 UV-I 0 W/m 21,3 km/h (4 Bft)
17.08.2014 00:38 13,0 C 11,7 C 91 % 1016,6 hPa 0,0 l/m 0 min 0 min 0,0 UV-I 0 W/m 17,7 km/h (3 Bft)
17.08.2014 00:40 13,0 C 11,7 C 91 % 1016,5 hPa 0,0 l/m 0 min 0 min 0,0 UV-I 0 W/m 17,7 km/h (3 Bft)
17.08.2014 00:42 13,1 C 11,7 C 91 % 1016,5 hPa 0,0 l/m 0 min 0 min 0,0 UV-I 0 W/m 17,7 km/h (3 Bft)
17.08.2014 00:44 13,2 C 11,7 C 91 % 1016,5 hPa 0,0 l/m 0 min 0 min 0,0 UV-I 0 W/m 10,7 km/h (2 Bft)
17.08.2014 00:46 13,2 C 11,7 C 91 % 1016,4 hPa 0,0 l/m 0 min 0 min 0,0 UV-I 0 W/m 10,7 km/h (2 Bft)
17.08.2014 00:48 13,2 C 11,7 C 90 % 1016,4 hPa 0,0 l/m 0 min 0 min 0,0 UV-I 0 W/m 3,5 km/h (1 Bft)
17.08.2014 00:50 13,2 C 11,7 C 90 % 1016,5 hPa 0,0 l/m 0 min 0 min 0,0 UV-I 0 W/m 0,0 km/h (0 Bft)
17.08.2014 00:52 13,2 C 11,7 C 90 % 1016,5 hPa 0,0 l/m 0 min 0 min 0,0 UV-I 0 W/m 0,0 km/h (0 Bft)
17.08.2014 00:54 13,2 C 11,7 C 90 % 1016,5 hPa 0,0 l/m 0 min 0 min 0,0 UV-I 0 W/m 0,0 km/h (0 Bft)
17.08.2014 00:56 13,2 C 11,7 C 90 % 1016,5 hPa 0,0 l/m 0 min 0 min 0,0 UV-I 0 W/m 0,0 km/h (0 Bft)
17.08.2014 00:58 13,2 C 11,7 C 90 % 1016,4 hPa 0,0 l/m 0 min 0 min 0,0 UV-I 0 W/m 7,1 km/h (2 Bft)
17.08.2014 01:00 13,3 C 11,7 C 90 % 1016,4 hPa 0,0 l/m 0 min 0 min 0,0 UV-I 0 W/m 17,7 km/h (3 Bft)
17.08.2014 01:02 13,3 C 11,7 C 90 % 1016,4 hPa 0,0 l/m 0 min 0 min 0,0 UV-I 0 W/m 14,2 km/h (3 Bft)
17.08.2014 01:04 13,3 C 11,7 C 90 % 1016,4 hPa 0,0 l/m 0 min 0 min 0,0 UV-I 0 W/m 10,7 km/h (2 Bft)
17.08.2014 01:06 13,3 C 11,7 C 90 % 1016,4 hPa 0,0 l/m 0 min 0 min 0,0 UV-I 0 W/m 10,7 km/h (2 Bft)
17.08.2014 01:08 13,3 C 11,7 C 90 % 1016,4 hPa 0,0 l/m 0 min 0 min 0,0 UV-I 0 W/m 17,7 km/h (3 Bft)
17.08.2014 01:10 13,3 C 11,7 C 90 % 1016,4 hPa 0,0 l/m 0 min 0 min 0,0 UV-I 0 W/m 10,7 km/h (2 Bft)
17.08.2014 01:12 13,3 C 11,7 C 89 % 1016,4 hPa 0,0 l/m 0 min 0 min 0,0 UV-I 0 W/m 14,2 km/h (3 Bft)
17.08.2014 01:14 13,3 C 11,7 C 90 % 1016,4 hPa 0,0 l/m 0 min 0 min 0,0 UV-I 0 W/m 21,3 km/h (4 Bft)
17.08.2014 01:16 13,3 C 12,2 C 89 % 1016,4 hPa 0,0 l/m 0 min 0 min 0,0 UV-I 0 W/m 21,3 km/h (4 Bft)
17.08.2014 01:18 13,4 C 12,2 C 90 % 1016,4 hPa 0,0 l/m 0 min 0 min 0,0 UV-I 0 W/m 24,7 km/h (4 Bft)
17.08.2014 01:20 13,4 C 12,2 C 90 % 1016,3 hPa 0,0 l/m 0 min 0 min 0,0 UV-I 0 W/m 28,2 km/h (4 Bft)
17.08.2014 01:22 13,4 C 12,2 C 90 % 1016,3 hPa 0,0 l/m 0 min 0 min 0,0 UV-I 0 W/m 21,3 km/h (4 Bft)
17.08.2014 01:24 13,4 C 12,2 C 90 % 1016,3 hPa 0,0 l/m 0 min 0 min 0,0 UV-I 0 W/m 14,2 km/h (3 Bft)
17.08.2014 01:26 13,4 C 12,2 C 90 % 1016,3 hPa 0,0 l/m 0 min 0 min 0,0 UV-I 0 W/m 21,3 km/h (4 Bft)
17.08.2014 01:28 13,4 C 12,2 C 90 % 1016,3 hPa 0,0 l/m 0 min 0 min 0,0 UV-I 0 W/m 17,7 km/h (3 Bft)
17.08.2014 01:30 13,4 C 12,2 C 90 % 1016,3 hPa 0,0 l/m 0 min 0 min 0,0 UV-I 0 W/m 17,7 km/h (3 Bft)
17.08.2014 01:32 13,4 C 12,2 C 90 % 1016,2 hPa 0,0 l/m 0 min 0 min 0,0 UV-I 0 W/m 14,2 km/h (3 Bft)
17.08.2014 01:34 13,4 C 11,7 C 90 % 1016,2 hPa 0,0 l/m 0 min 0 min 0,0 UV-I 0 W/m 17,7 km/h (3 Bft)
17.08.2014 01:36 13,3 C 12,2 C 91 % 1016,2 hPa 0,0 l/m 0 min 0 min 0,0 UV-I 0 W/m 24,7 km/h (4 Bft)
17.08.2014 01:38 13,3 C 11,7 C 91 % 1016,1 hPa 0,0 l/m 0 min 0 min 0,0 UV-I 0 W/m 21,3 km/h (4 Bft)
17.08.2014 01:40 13,3 C 12,2 C 91 % 1016,1 hPa 0,0 l/m 0 min 0 min 0,0 UV-I 0 W/m 24,7 km/h (4 Bft)
17.08.2014 01:42 13,4 C 12,2 C 91 % 1016,0 hPa 0,0 l/m 0 min 0 min 0,0 UV-I 0 W/m 24,7 km/h (4 Bft)
17.08.2014 01:44 13,4 C 12,2 C 91 % 1015,9 hPa 0,0 l/m 0 min 0 min 0,0 UV-I 0 W/m 17,7 km/h (3 Bft)
17.08.2014 01:46 13,4 C 12,2 C 91 % 1015,9 hPa 0,0 l/m 0 min 0 min 0,0 UV-I 0 W/m 17,7 km/h (3 Bft)
17.08.2014 01:48 13,3 C 12,2 C 91 % 1015,9 hPa 0,0 l/m 0 min 0 min 0,0 UV-I 0 W/m 17,7 km/h (3 Bft)
17.08.2014 01:50 13,3 C 11,7 C 91 % 1015,8 hPa 0,0 l/m 0 min 0 min 0,0 UV-I 0 W/m 17,7 km/h (3 Bft)
17.08.2014 01:52 13,3 C 11,7 C 91 % 1015,8 hPa 0,0 l/m 0 min 0 min 0,0 UV-I 0 W/m 24,7 km/h (4 Bft)
17.08.2014 01:54 13,2 C 11,7 C 91 % 1015,9 hPa 0,0 l/m 0 min 0 min 0,0 UV-I 0 W/m 21,3 km/h (4 Bft)
17.08.2014 01:56 13,2 C 11,7 C 91 % 1015,8 hPa 0,0 l/m 0 min 0 min 0,0 UV-I 0 W/m 31,7 km/h (5 Bft)
17.08.2014 01:58 13,2 C 12,2 C 91 % 1015,8 hPa 0,0 l/m 0 min 0 min 0,0 UV-I 0 W/m 21,3 km/h (4 Bft)
17.08.2014 02:00 13,2 C 12,2 C 91 % 1015,7 hPa 0,0 l/m 0 min 0 min 0,0 UV-I 0 W/m 24,7 km/h (4 Bft)
17.08.2014 02:02 13,2 C 12,2 C 91 % 1015,8 hPa 0,0 l/m 0 min 0 min 0,0 UV-I 0 W/m 24,7 km/h (4 Bft)
17.08.2014 02:04 13,2 C 12,2 C 91 % 1015,7 hPa 0,0 l/m 0 min 0 min 0,0 UV-I 0 W/m 31,7 km/h (5 Bft)
17.08.2014 02:06 13,2 C 12,2 C 91 % 1015,8 hPa 0,0 l/m 0 min 0 min 0,0 UV-I 0 W/m 31,7 km/h (5 Bft)
17.08.2014 02:08 13,2 C 12,2 C 91 % 1015,7 hPa 0,0 l/m 0 min 0 min 0,0 UV-I 0 W/m 21,3 km/h (4 Bft)
17.08.2014 02:10 13,2 C 12,2 C 91 % 1015,8 hPa 0,0 l/m 0 min 0 min 0,0 UV-I 0 W/m 21,3 km/h (4 Bft)
17.08.2014 02:12 13,2 C 11,7 C 91 % 1015,7 hPa 0,0 l/m 0 min 0 min 0,0 UV-I 0 W/m 17,7 km/h (3 Bft)
17.08.2014 02:14 13,1 C 11,7 C 91 % 1015,8 hPa 0,0 l/m 0 min 0 min 0,0 UV-I 0 W/m 21,3 km/h (4 Bft)
17.08.2014 02:16 13,1 C 11,7 C 91 % 1015,7 hPa 0,0 l/m 0 min 0 min 0,0 UV-I 0 W/m 24,7 km/h (4 Bft)
17.08.2014 02:18 13,1 C 11,7 C 91 % 1015,7 hPa 0,0 l/m 0 min 0 min 0,0 UV-I 0 W/m 21,3 km/h (4 Bft)
17.08.2014 02:20 13,1 C 11,7 C 91 % 1015,7 hPa 0,0 l/m 0 min 0 min 0,0 UV-I 0 W/m 24,7 km/h (4 Bft)
17.08.2014 02:22 13,1 C 11,7 C 91 % 1015,7 hPa 0,0 l/m 0 min 0 min 0,0 UV-I 0 W/m 28,2 km/h (4 Bft)
17.08.2014 02:24 13,1 C 11,7 C 91 % 1015,7 hPa 0,0 l/m 0 min 0 min 0,0 UV-I 0 W/m 24,7 km/h (4 Bft)
17.08.2014 02:26 13,0 C 11,7 C 91 % 1015,6 hPa 0,0 l/m 0 min 0 min 0,0 UV-I 0 W/m 21,3 km/h (4 Bft)
17.08.2014 02:28 13,0 C 11,7 C 91 % 1015,6 hPa 0,0 l/m 0 min 0 min 0,0 UV-I 0 W/m 21,3 km/h (4 Bft)
17.08.2014 02:30 13,0 C 11,7 C 91 % 1015,6 hPa 0,0 l/m 0 min 0 min 0,0 UV-I 0 W/m 21,3 km/h (4 Bft)
17.08.2014 02:32 13,0 C 11,7 C 90 % 1015,6 hPa 0,0 l/m 0 min 0 min 0,0 UV-I 0 W/m 24,7 km/h (4 Bft)
17.08.2014 02:34 12,9 C 11,7 C 90 % 1015,6 hPa 0,0 l/m 0 min 0 min 0,0 UV-I 0 W/m 24,7 km/h (4 Bft)
17.08.2014 02:36 12,9 C 11,7 C 90 % 1015,5 hPa 0,0 l/m 0 min 0 min 0,0 UV-I 0 W/m 14,2 km/h (3 Bft)
17.08.2014 02:38 12,9 C 11,7 C 90 % 1015,5 hPa 0,0 l/m 0 min 0 min 0,0 UV-I 0 W/m 24,7 km/h (4 Bft)
17.08.2014 02:40 12,9 C 11,7 C 90 % 1015,5 hPa 0,0 l/m 0 min 0 min 0,0 UV-I 0 W/m 28,2 km/h (4 Bft)
17.08.2014 02:42 12,9 C 11,7 C 90 % 1015,5 hPa 0,0 l/m 0 min 0 min 0,0 UV-I 0 W/m 28,2 km/h (4 Bft)
17.08.2014 02:44 12,9 C 11,7 C 90 % 1015,5 hPa 0,0 l/m 0 min 0 min 0,0 UV-I 0 W/m 28,2 km/h (4 Bft)
17.08.2014 02:46 12,9 C 11,7 C 90 % 1015,5 hPa 0,0 l/m 0 min 0 min 0,0 UV-I 0 W/m 28,2 km/h (4 Bft)
17.08.2014 02:48 12,9 C 11,7 C 90 % 1015,4 hPa 0,0 l/m 0 min 0 min 0,0 UV-I 0 W/m 24,7 km/h (4 Bft)
17.08.2014 02:50 12,9 C 11,7 C 90 % 1015,4 hPa 0,0 l/m 0 min 0 min 0,0 UV-I 0 W/m 17,7 km/h (3 Bft)
17.08.2014 02:52 12,9 C 11,7 C 90 % 1015,3 hPa 0,0 l/m 0 min 0 min 0,0 UV-I 0 W/m 24,7 km/h (4 Bft)
17.08.2014 02:54 12,8 C 11,7 C 90 % 1015,4 hPa 0,0 l/m 0 min 0 min 0,0 UV-I 0 W/m 28,2 km/h (4 Bft)
17.08.2014 02:56 12,8 C 11,7 C 90 % 1015,4 hPa 0,0 l/m 0 min 0 min 0,0 UV-I 0 W/m 24,7 km/h (4 Bft)
17.08.2014 02:58 12,8 C 11,7 C 90 % 1015,5 hPa 0,0 l/m 0 min 0 min 0,0 UV-I 0 W/m 28,2 km/h (4 Bft)
17.08.2014 03:00 12,8 C 11,7 C 90 % 1015,5 hPa 0,0 l/m 0 min 0 min 0,0 UV-I 0 W/m 21,3 km/h (4 Bft)
17.08.2014 03:02 12,8 C 11,7 C 90 % 1015,4 hPa 0,0 l/m 0 min 0 min 0,0 UV-I 0 W/m 24,7 km/h (4 Bft)
17.08.2014 03:04 12,8 C 11,7 C 90 % 1015,4 hPa 0,0 l/m 0 min 0 min 0,0 UV-I 0 W/m 24,7 km/h (4 Bft)
17.08.2014 03:06 12,8 C 11,7 C 90 % 1015,4 hPa 0,0 l/m 0 min 0 min 0,0 UV-I 0 W/m 17,7 km/h (3 Bft)
17.08.2014 03:08 12,8 C 11,7 C 90 % 1015,3 hPa 0,0 l/m 0 min 0 min 0,0 UV-I 0 W/m 24,7 km/h (4 Bft)
17.08.2014 03:10 12,8 C 11,7 C 90 % 1015,3 hPa 0,0 l/m 0 min 0 min 0,0 UV-I 0 W/m 21,3 km/h (4 Bft)
17.08.2014 03:12 12,8 C 11,7 C 90 % 1015,2 hPa 0,0 l/m 0 min 0 min 0,0 UV-I 0 W/m 17,7 km/h (3 Bft)
17.08.2014 03:14 12,7 C 11,7 C 90 % 1015,3 hPa 0,0 l/m 0 min 0 min 0,0 UV-I 0 W/m 17,7 km/h (3 Bft)
17.08.2014 03:16 12,7 C 11,7 C 90 % 1015,2 hPa 0,0 l/m 0 min 0 min 0,0 UV-I 0 W/m 17,7 km/h (3 Bft)
17.08.2014 03:18 12,7 C 11,7 C 91 % 1015,2 hPa 0,0 l/m 0 min 0 min 0,0 UV-I 0 W/m 31,7 km/h (5 Bft)
17.08.2014 03:20 12,7 C 11,7 C 91 % 1015,2 hPa 0,0 l/m 0 min 0 min 0,0 UV-I 0 W/m 28,2 km/h (4 Bft)
17.08.2014 03:22 12,7 C 11,7 C 91 % 1015,1 hPa 0,0 l/m 0 min 0 min 0,0 UV-I 0 W/m 24,7 km/h (4 Bft)
17.08.2014 03:24 12,7 C 11,7 C 91 % 1015,1 hPa 0,0 l/m 0 min 0 min 0,0 UV-I 0 W/m 24,7 km/h (4 Bft)
17.08.2014 03:26 12,7 C 11,7 C 91 % 1015,1 hPa 0,0 l/m 0 min 0 min 0,0 UV-I 0 W/m 21,3 km/h (4 Bft)
17.08.2014 03:28 12,7 C 11,7 C 90 % 1015,1 hPa 0,0 l/m 0 min 0 min 0,0 UV-I 0 W/m 28,2 km/h (4 Bft)
17.08.2014 03:30 12,8 C 11,7 C 90 % 1015,0 hPa 0,0 l/m 0 min 0 min 0,0 UV-I 0 W/m 28,2 km/h (4 Bft)
17.08.2014 03:32 12,8 C 11,7 C 90 % 1015,1 hPa 0,0 l/m 0 min 0 min 0,0 UV-I 0 W/m 24,7 km/h (4 Bft)
17.08.2014 03:34 12,7 C 11,7 C 90 % 1015,1 hPa 0,0 l/m 0 min 0 min 0,0 UV-I 0 W/m 24,7 km/h (4 Bft)
17.08.2014 03:36 12,7 C 11,7 C 90 % 1015,0 hPa 0,0 l/m 0 min 0 min 0,0 UV-I 0 W/m 28,2 km/h (4 Bft)
17.08.2014 03:38 12,7 C 11,7 C 90 % 1015,1 hPa 0,0 l/m 0 min 0 min 0,0 UV-I 0 W/m 14,2 km/h (3 Bft)
17.08.2014 03:40 12,7 C 11,7 C 90 % 1015,0 hPa 0,0 l/m 0 min 0 min 0,0 UV-I 0 W/m 21,3 km/h (4 Bft)
17.08.2014 03:42 12,7 C 11,7 C 90 % 1015,0 hPa 0,0 l/m 0 min 0 min 0,0 UV-I 0 W/m 28,2 km/h (4 Bft)
17.08.2014 03:44 12,7 C 11,7 C 90 % 1014,9 hPa 0,0 l/m 0 min 0 min 0,0 UV-I 0 W/m 21,3 km/h (4 Bft)
17.08.2014 03:46 12,7 C 11,7 C 90 % 1014,8 hPa 0,0 l/m 0 min 0 min 0,0 UV-I 0 W/m 14,2 km/h (3 Bft)
17.08.2014 03:48 12,7 C 11,7 C 90 % 1014,9 hPa 0,0 l/m 0 min 0 min 0,0 UV-I 0 W/m 31,7 km/h (5 Bft)
17.08.2014 03:50 12,6 C 11,7 C 91 % 1014,8 hPa 0,0 l/m 0 min 0 min 0,0 UV-I 0 W/m 28,2 km/h (4 Bft)
17.08.2014 03:52 12,6 C 11,7 C 90 % 1014,8 hPa 0,0 l/m 0 min 0 min 0,0 UV-I 0 W/m 17,7 km/h (3 Bft)
17.08.2014 03:54 12,6 C 11,7 C 90 % 1014,8 hPa 0,0 l/m 0 min 0 min 0,0 UV-I 0 W/m 21,3 km/h (4 Bft)
17.08.2014 03:56 12,6 C 11,7 C 91 % 1014,7 hPa 0,0 l/m 0 min 0 min 0,0 UV-I 0 W/m 28,2 km/h (4 Bft)
17.08.2014 03:58 12,6 C 11,7 C 91 % 1014,7 hPa 0,0 l/m 0 min 0 min 0,0 UV-I 0 W/m 24,7 km/h (4 Bft)
17.08.2014 04:00 12,6 C 11,7 C 91 % 1014,7 hPa 0,0 l/m 0 min 0 min 0,0 UV-I 0 W/m 21,3 km/h (4 Bft)
17.08.2014 04:05 12,6 C 11,7 C 91 % 1014,6 hPa 0,0 l/m 0 min 0 min 0,0 UV-I 0 W/m 35,4 km/h (5 Bft)
17.08.2014 04:06 12,6 C 11,7 C 91 % 1014,6 hPa 0,0 l/m 0 min 0 min 0,0 UV-I 0 W/m 28,2 km/h (4 Bft)
17.08.2014 04:08 12,6 C 11,7 C 91 % 1014,6 hPa 0,0 l/m 0 min 0 min 0,0 UV-I 0 W/m 35,4 km/h (5 Bft)
17.08.2014 04:10 12,6 C 11,7 C 91 % 1014,7 hPa 0,0 l/m 0 min 0 min 0,0 UV-I 0 W/m 24,7 km/h (4 Bft)
17.08.2014 04:12 12,5 C 11,1 C 91 % 1014,6 hPa 0,0 l/m 0 min 0 min 0,0 UV-I 0 W/m 42,4 km/h (6 Bft)
17.08.2014 04:14 12,5 C 11,7 C 91 % 1014,5 hPa 0,0 l/m 0 min 0 min 0,0 UV-I 0 W/m 24,7 km/h (4 Bft)
17.08.2014 04:16 12,5 C 11,1 C 91 % 1014,5 hPa 0,0 l/m 0 min 0 min 0,0 UV-I 0 W/m 28,2 km/h (4 Bft)
17.08.2014 04:18 12,5 C 11,7 C 91 % 1014,6 hPa 0,0 l/m 0 min 0 min 0,0 UV-I 0 W/m 38,9 km/h (6 Bft)
17.08.2014 04:20 12,6 C 11,7 C 91 % 1014,5 hPa 0,0 l/m 0 min 0 min 0,0 UV-I 0 W/m 31,7 km/h (5 Bft)
17.08.2014 04:22 12,6 C 11,7 C 91 % 1014,5 hPa 0,0 l/m 0 min 0 min 0,0 UV-I 0 W/m 31,7 km/h (5 Bft)
17.08.2014 04:24 12,6 C 11,7 C 91 % 1014,4 hPa 0,0 l/m 0 min 0 min 0,0 UV-I 0 W/m 31,7 km/h (5 Bft)
17.08.2014 04:26 12,6 C 11,7 C 91 % 1014,4 hPa 0,0 l/m 0 min 0 min 0,0 UV-I 0 W/m 28,2 km/h (4 Bft)
17.08.2014 04:28 12,6 C 11,7 C 91 % 1014,4 hPa 0,0 l/m 0 min 0 min 0,0 UV-I 0 W/m 24,7 km/h (4 Bft)
17.08.2014 04:30 12,6 C 11,7 C 91 % 1014,4 hPa 0,0 l/m 0 min 0 min 0,0 UV-I 0 W/m 42,4 km/h (6 Bft)
17.08.2014 04:32 12,6 C 11,7 C 91 % 1014,4 hPa 0,0 l/m 0 min 0 min 0,0 UV-I 0 W/m 28,2 km/h (4 Bft)
17.08.2014 04:34 12,6 C 11,7 C 91 % 1014,3 hPa 0,0 l/m 0 min 0 min 0,0 UV-I 0 W/m 31,7 km/h (5 Bft)
17.08.2014 04:36 12,6 C 11,7 C 91 % 1014,3 hPa 0,0 l/m 0 min 0 min 0,0 UV-I 0 W/m 35,4 km/h (5 Bft)
17.08.2014 04:38 12,6 C 11,7 C 91 % 1014,3 hPa 0,0 l/m 0 min 0 min 0,0 UV-I 0 W/m 17,7 km/h (3 Bft)
17.08.2014 04:40 12,5 C 11,7 C 91 % 1014,3 hPa 0,0 l/m 0 min 0 min 0,0 UV-I 0 W/m 28,2 km/h (4 Bft)
17.08.2014 04:42 12,5 C 11,7 C 91 % 1014,3 hPa 0,0 l/m 0 min 0 min 0,0 UV-I 0 W/m 28,2 km/h (4 Bft)
17.08.2014 04:44 12,6 C 11,1 C 91 % 1014,3 hPa 0,0 l/m 0 min 0 min 0,0 UV-I 0 W/m 24,7 km/h (4 Bft)
17.08.2014 04:46 12,5 C 11,1 C 91 % 1014,2 hPa 0,0 l/m 0 min 0 min 0,0 UV-I 0 W/m 24,7 km/h (4 Bft)
17.08.2014 04:48 12,5 C 11,7 C 91 % 1014,3 hPa 0,0 l/m 0 min 0 min 0,0 UV-I 0 W/m 38,9 km/h (6 Bft)
17.08.2014 04:50 12,6 C 11,7 C 91 % 1014,3 hPa 0,0 l/m 0 min 0 min 0,0 UV-I 0 W/m 24,7 km/h (4 Bft)
17.08.2014 04:52 12,6 C 11,1 C 91 % 1014,2 hPa 0,0 l/m 0 min 0 min 0,0 UV-I 0 W/m 24,7 km/h (4 Bft)
17.08.2014 04:54 12,5 C 11,1 C 91 % 1014,1 hPa 0,0 l/m 0 min 0 min 0,0 UV-I 0 W/m 24,7 km/h (4 Bft)
17.08.2014 04:56 12,5 C 11,1 C 91 % 1014,1 hPa 0,0 l/m 0 min 0 min 0,0 UV-I 0 W/m 28,2 km/h (4 Bft)
17.08.2014 04:58 12,5 C 11,1 C 91 % 1014,1 hPa 0,0 l/m 0 min 0 min 0,0 UV-I 0 W/m 17,7 km/h (3 Bft)
17.08.2014 05:00 12,5 C 11,1 C 91 % 1014,1 hPa 0,0 l/m 0 min 0 min 0,0 UV-I 0 W/m 28,2 km/h (4 Bft)
17.08.2014 05:02 12,4 C 11,1 C 91 % 1014,2 hPa 0,0 l/m 0 min 0 min 0,0 UV-I 0 W/m 35,4 km/h (5 Bft)
17.08.2014 05:04 12,5 C 11,1 C 92 % 1014,2 hPa 0,0 l/m 0 min 0 min 0,0 UV-I 0 W/m 24,7 km/h (4 Bft)
17.08.2014 05:06 12,4 C 11,1 C 92 % 1014,1 hPa 0,0 l/m 0 min 0 min 0,0 UV-I 0 W/m 31,7 km/h (5 Bft)
17.08.2014 05:08 12,4 C 11,1 C 91 % 1014,1 hPa 0,0 l/m 0 min 0 min 0,0 UV-I 0 W/m 24,7 km/h (4 Bft)
17.08.2014 05:10 12,5 C 11,1 C 92 % 1014,1 hPa 0,0 l/m 0 min 0 min 0,0 UV-I 0 W/m 24,7 km/h (4 Bft)
17.08.2014 05:12 12,5 C 11,1 C 92 % 1014,0 hPa 0,0 l/m 0 min 0 min 0,0 UV-I 0 W/m 21,3 km/h (4 Bft)
17.08.2014 05:14 12,5 C 11,7 C 92 % 1014,0 hPa 0,0 l/m 0 min 0 min 0,0 UV-I 0 W/m 38,9 km/h (6 Bft)
17.08.2014 05:16 12,5 C 11,7 C 92 % 1014,1 hPa 0,0 l/m 0 min 0 min 0,0 UV-I 0 W/m 31,7 km/h (5 Bft)
17.08.2014 05:18 12,5 C 11,7 C 92 % 1014,0 hPa 0,0 l/m 0 min 0 min 0,0 UV-I 0 W/m 28,2 km/h (4 Bft)
17.08.2014 05:20 12,5 C 11,1 C 92 % 1014,0 hPa 0,0 l/m 0 min 0 min 0,0 UV-I 0 W/m 31,7 km/h (5 Bft)
17.08.2014 05:22 12,5 C 11,1 C 92 % 1014,0 hPa 0,0 l/m 0 min 0 min 0,0 UV-I 0 W/m 31,7 km/h (5 Bft)
17.08.2014 05:24 12,5 C 11,7 C 92 % 1014,0 hPa 0,0 l/m 0 min 0 min 0,0 UV-I 0 W/m 28,2 km/h (4 Bft)
17.08.2014 05:26 12,5 C 11,1 C 92 % 1013,9 hPa 0,0 l/m 0 min 0 min 0,0 UV-I 0 W/m 24,7 km/h (4 Bft)
17.08.2014 05:28 12,6 C 11,7 C 92 % 1013,9 hPa 0,0 l/m 0 min 0 min 0,0 UV-I 0 W/m 35,4 km/h (5 Bft)
17.08.2014 05:30 12,6 C 11,7 C 92 % 1013,9 hPa 0,0 l/m 0 min 0 min 0,0 UV-I 0 W/m 21,3 km/h (4 Bft)
17.08.2014 05:32 12,6 C 11,7 C 92 % 1014,0 hPa 0,0 l/m 0 min 0 min 0,0 UV-I 0 W/m 38,9 km/h (6 Bft)
17.08.2014 05:34 12,6 C 11,7 C 92 % 1013,9 hPa 0,0 l/m 0 min 0 min 0,0 UV-I 0 W/m 31,7 km/h (5 Bft)
17.08.2014 05:36 12,6 C 11,7 C 92 % 1013,9 hPa 0,0 l/m 0 min 0 min 0,0 UV-I 0 W/m 35,4 km/h (5 Bft)
17.08.2014 05:38 12,6 C 11,7 C 92 % 1013,9 hPa 0,0 l/m 0 min 0 min 0,0 UV-I 0 W/m 35,4 km/h (5 Bft)
17.08.2014 05:40 12,6 C 11,7 C 92 % 1014,0 hPa 0,0 l/m 0 min 0 min 0,0 UV-I 0 W/m 28,2 km/h (4 Bft)
17.08.2014 05:42 12,6 C 11,7 C 91 % 1013,9 hPa 0,0 l/m 0 min 0 min 0,0 UV-I 0 W/m 31,7 km/h (5 Bft)
17.08.2014 05:44 12,6 C 11,7 C 91 % 1013,9 hPa 0,0 l/m 0 min 0 min 0,0 UV-I 0 W/m 24,7 km/h (4 Bft)
17.08.2014 05:46 12,6 C 11,7 C 92 % 1013,8 hPa 0,0 l/m 0 min 0 min 0,0 UV-I 0 W/m 28,2 km/h (4 Bft)
17.08.2014 05:48 12,6 C 11,1 C 92 % 1013,9 hPa 0,0 l/m 0 min 0 min 0,0 UV-I 0 W/m 24,7 km/h (4 Bft)
17.08.2014 05:50 12,6 C 11,7 C 92 % 1013,8 hPa 0,0 l/m 0 min 0 min 0,0 UV-I 0 W/m 31,7 km/h (5 Bft)
17.08.2014 05:52 12,6 C 11,1 C 92 % 1013,8 hPa 0,0 l/m 0 min 0 min 0,0 UV-I 0 W/m 21,3 km/h (4 Bft)
17.08.2014 05:54 12,5 C 11,1 C 92 % 1013,8 hPa 0,0 l/m 0 min 0 min 0,0 UV-I 0 W/m 28,2 km/h (4 Bft)
17.08.2014 05:56 12,5 C 11,1 C 92 % 1013,8 hPa 0,0 l/m 0 min 0 min 0,0 UV-I 0 W/m 17,7 km/h (3 Bft)
17.08.2014 05:58 12,5 C 11,1 C 92 % 1013,7 hPa 0,0 l/m 0 min 0 min 0,0 UV-I 0 W/m 28,2 km/h (4 Bft)
17.08.2014 06:00 12,5 C 11,1 C 92 % 1013,9 hPa 0,0 l/m 0 min 0 min 0,0 UV-I 0 W/m 24,7 km/h (4 Bft)
17.08.2014 06:02 12,5 C 11,1 C 92 % 1013,8 hPa 0,0 l/m 0 min 0 min 0,0 UV-I 0 W/m 21,3 km/h (4 Bft)
17.08.2014 06:06 12,6 C 11,1 C 92 % 1013,8 hPa 0,0 l/m 0 min 0 min 0,0 UV-I 0 W/m 35,4 km/h (5 Bft)
17.08.2014 06:08 12,6 C 11,1 C 92 % 1013,9 hPa 0,0 l/m 0 min 0 min 0,0 UV-I 0 W/m 31,7 km/h (5 Bft)
17.08.2014 06:10 12,6 C 11,7 C 92 % 1013,8 hPa 0,0 l/m 0 min 0 min 0,0 UV-I 0 W/m 24,7 km/h (4 Bft)
17.08.2014 06:12 12,6 C 11,7 C 92 % 1013,9 hPa 0,0 l/m 0 min 0 min 0,0 UV-I 0 W/m 14,2 km/h (3 Bft)
17.08.2014 06:14 12,6 C 11,7 C 92 % 1013,8 hPa 0,0 l/m 0 min 0 min 0,0 UV-I 0 W/m 31,7 km/h (5 Bft)
17.08.2014 06:16 12,6 C 11,7 C 92 % 1013,8 hPa 0,0 l/m 0 min 0 min 0,0 UV-I 0 W/m 24,7 km/h (4 Bft)
17.08.2014 06:18 12,6 C 11,7 C 92 % 1013,8 hPa 0,0 l/m 0 min 0 min 0,0 UV-I 0 W/m 35,4 km/h (5 Bft)
17.08.2014 06:20 12,6 C 11,7 C 92 % 1013,8 hPa 0,0 l/m 0 min 0 min 0,0 UV-I 0 W/m 28,2 km/h (4 Bft)
17.08.2014 06:22 12,6 C 11,7 C 92 % 1013,7 hPa 0,0 l/m 0 min 0 min 0,0 UV-I 0 W/m 24,7 km/h (4 Bft)
17.08.2014 06:24 12,6 C 11,7 C 92 % 1013,7 hPa 0,0 l/m 0 min 0 min 0,0 UV-I 0 W/m 28,2 km/h (4 Bft)
17.08.2014 06:26 12,6 C 11,7 C 92 % 1013,7 hPa 0,0 l/m 0 min 0 min 0,0 UV-I 0 W/m 28,2 km/h (4 Bft)
17.08.2014 06:28 12,6 C 11,7 C 92 % 1013,7 hPa 0,0 l/m 0 min 0 min 0,0 UV-I 0 W/m 17,7 km/h (3 Bft)
17.08.2014 06:30 12,5 C 11,1 C 92 % 1013,6 hPa 0,0 l/m 0 min 0 min 0,0 UV-I 8 W/m 14,2 km/h (3 Bft)
17.08.2014 06:32 12,5 C 11,1 C 92 % 1013,6 hPa 0,0 l/m 0 min 0 min 0,0 UV-I 9 W/m 28,2 km/h (4 Bft)
17.08.2014 06:34 12,5 C 11,7 C 92 % 1013,6 hPa 0,0 l/m 0 min 0 min 0,0 UV-I 11 W/m 46,0 km/h (6 Bft)
17.08.2014 06:36 12,5 C 11,7 C 92 % 1013,5 hPa 0,0 l/m 0 min 0 min 0,0 UV-I 12 W/m 24,7 km/h (4 Bft)
17.08.2014 06:38 12,5 C 11,7 C 92 % 1013,5 hPa 0,0 l/m 2 min 0 min 0,0 UV-I 14 W/m 24,7 km/h (4 Bft)
17.08.2014 06:40 12,5 C 11,1 C 92 % 1013,4 hPa 0,0 l/m 2 min 0 min 0,0 UV-I 16 W/m 28,2 km/h (4 Bft)
17.08.2014 06:42 12,4 C 11,1 C 92 % 1013,4 hPa 0,0 l/m 2 min 0 min 0,0 UV-I 18 W/m 31,7 km/h (5 Bft)
17.08.2014 06:44 12,4 C 11,1 C 92 % 1013,4 hPa 0,0 l/m 2 min 0 min 0,0 UV-I 21 W/m 21,3 km/h (4 Bft)
17.08.2014 06:46 12,4 C 11,7 C 92 % 1013,4 hPa 0,0 l/m 2 min 0 min 0,0 UV-I 25 W/m 31,7 km/h (5 Bft)
17.08.2014 06:48 12,5 C 11,7 C 92 % 1013,3 hPa 0,0 l/m 2 min 0 min 0,0 UV-I 27 W/m 38,9 km/h (6 Bft)
17.08.2014 06:50 12,5 C 11,7 C 92 % 1013,4 hPa 0,0 l/m 2 min 0 min 0,0 UV-I 28 W/m 31,7 km/h (5 Bft)
17.08.2014 06:52 12,6 C 11,7 C 92 % 1013,3 hPa 0,0 l/m 2 min 0 min 0,0 UV-I 31 W/m 28,2 km/h (4 Bft)
17.08.2014 06:54 12,6 C 11,7 C 95 % 1013,3 hPa 0,0 l/m 2 min 0 min 0,0 UV-I 34 W/m 31,7 km/h (5 Bft)
17.08.2014 06:56 12,6 C 11,7 C 92 % 1013,4 hPa 0,0 l/m 2 min 0 min 0,0 UV-I 38 W/m 31,7 km/h (5 Bft)
17.08.2014 06:58 12,6 C 11,7 C 92 % 1013,3 hPa 0,0 l/m 2 min 0 min 0,0 UV-I 39 W/m 35,4 km/h (5 Bft)
17.08.2014 07:00 12,6 C 11,7 C 92 % 1013,4 hPa 0,0 l/m 2 min 0 min 0,0 UV-I 43 W/m 38,9 km/h (6 Bft)
17.08.2014 07:02 12,7 C 11,7 C 92 % 1013,3 hPa 0,0 l/m 2 min 0 min 0,0 UV-I 47 W/m 38,9 km/h (6 Bft)
17.08.2014 07:04 12,7 C 11,7 C 92 % 1013,4 hPa 0,0 l/m 2 min 0 min 0,0 UV-I 52 W/m 49,5 km/h (6 Bft)
17.08.2014 07:06 12,7 C 11,7 C 92 % 1013,3 hPa 0,0 l/m 2 min 0 min 0,0 UV-I 58 W/m 31,7 km/h (5 Bft)
17.08.2014 07:08 12,7 C 11,7 C 92 % 1013,3 hPa 0,0 l/m 2 min 0 min 0,0 UV-I 62 W/m 31,7 km/h (5 Bft)
17.08.2014 07:10 12,8 C 11,7 C 92 % 1013,3 hPa 0,0 l/m 2 min 0 min 0,0 UV-I 62 W/m 28,2 km/h (4 Bft)
17.08.2014 07:12 12,8 C 11,7 C 92 % 1013,3 hPa 0,0 l/m 2 min 0 min 0,0 UV-I 64 W/m 24,7 km/h (4 Bft)
17.08.2014 07:14 12,8 C 11,7 C 92 % 1013,3 hPa 0,0 l/m 2 min 0 min 0,0 UV-I 65 W/m 35,4 km/h (5 Bft)
17.08.2014 07:16 12,8 C 11,7 C 92 % 1013,2 hPa 0,0 l/m 2 min 0 min 0,0 UV-I 66 W/m 35,4 km/h (5 Bft)
17.08.2014 07:18 12,8 C 11,7 C 92 % 1013,2 hPa 0,0 l/m 2 min 0 min 0,0 UV-I 75 W/m 31,7 km/h (5 Bft)
17.08.2014 07:20 12,9 C 11,7 C 92 % 1013,2 hPa 0,0 l/m 2 min 0 min 0,0 UV-I 83 W/m 35,4 km/h (5 Bft)
17.08.2014 07:22 12,9 C 11,7 C 92 % 1013,2 hPa 0,0 l/m 2 min 0 min 0,0 UV-I 91 W/m 28,2 km/h (4 Bft)
17.08.2014 07:24 12,9 C 11,7 C 92 % 1013,1 hPa 0,0 l/m 2 min 0 min 0,0 UV-I 101 W/m 24,7 km/h (4 Bft)
17.08.2014 07:26 13,0 C 12,2 C 92 % 1013,2 hPa 0,0 l/m 2 min 0 min 0,0 UV-I 120 W/m 46,0 km/h (6 Bft)
17.08.2014 07:28 13,0 C 12,2 C 91 % 1013,1 hPa 0,0 l/m 2 min 0 min 0,0 UV-I 120 W/m 38,9 km/h (6 Bft)
17.08.2014 07:30 13,1 C 12,2 C 91 % 1013,0 hPa 0,0 l/m 2 min 0 min 0,0 UV-I 120 W/m 35,4 km/h (5 Bft)
17.08.2014 07:32 13,1 C 12,2 C 91 % 1013,1 hPa 0,0 l/m 2 min 0 min 0,0 UV-I 126 W/m 38,9 km/h (6 Bft)
17.08.2014 07:34 13,2 C 12,2 C 91 % 1013,0 hPa 0,0 l/m 2 min 0 min 0,0 UV-I 125 W/m 42,4 km/h (6 Bft)
17.08.2014 07:36 13,2 C 12,2 C 91 % 1012,9 hPa 0,0 l/m 2 min 0 min 0,0 UV-I 157 W/m 35,4 km/h (5 Bft)
17.08.2014 07:38 13,3 C 12,2 C 91 % 1012,8 hPa 0,0 l/m 2 min 0 min 0,0 UV-I 172 W/m 42,4 km/h (6 Bft)
17.08.2014 07:40 13,3 C 12,2 C 91 % 1012,9 hPa 0,0 l/m 2 min 0 min 0,0 UV-I 159 W/m 42,4 km/h (6 Bft)
17.08.2014 07:42 13,4 C 12,2 C 91 % 1013,0 hPa 0,0 l/m 2 min 0 min 0,0 UV-I 136 W/m 35,4 km/h (5 Bft)
17.08.2014 07:44 13,4 C 12,2 C 91 % 1012,9 hPa 0,0 l/m 2 min 0 min 0,0 UV-I 127 W/m 24,7 km/h (4 Bft)
17.08.2014 07:46 13,4 C 12,2 C 91 % 1012,9 hPa 0,0 l/m 2 min 0 min 0,0 UV-I 149 W/m 24,7 km/h (4 Bft)
17.08.2014 07:48 13,4 C 12,2 C 91 % 1012,9 hPa 0,0 l/m 2 min 0 min 0,0 UV-I 154 W/m 35,4 km/h (5 Bft)
17.08.2014 07:50 13,5 C 12,2 C 91 % 1012,9 hPa 0,0 l/m 2 min 0 min 0,0 UV-I 170 W/m 46,0 km/h (6 Bft)
17.08.2014 07:52 13,5 C 12,8 C 91 % 1013,0 hPa 0,0 l/m 2 min 0 min 0,0 UV-I 179 W/m 42,4 km/h (6 Bft)
17.08.2014 07:54 13,6 C 12,8 C 91 % 1012,9 hPa 0,0 l/m 2 min 0 min 0,0 UV-I 150 W/m 38,9 km/h (6 Bft)
17.08.2014 07:56 13,6 C 12,8 C 90 % 1012,8 hPa 0,0 l/m 2 min 0 min 0,0 UV-I 118 W/m 49,5 km/h (6 Bft)
17.08.2014 07:58 13,6 C 12,8 C 90 % 1012,9 hPa 0,0 l/m 2 min 0 min 0,0 UV-I 126 W/m 42,4 km/h (6 Bft)
17.08.2014 08:00 13,7 C 12,8 C 90 % 1012,9 hPa 0,0 l/m 2 min 0 min 0,0 UV-I 121 W/m 31,7 km/h (5 Bft)
17.08.2014 08:02 13,7 C 12,8 C 90 % 1012,9 hPa 0,0 l/m 2 min 0 min 0,0 UV-I 138 W/m 38,9 km/h (6 Bft)
17.08.2014 08:04 13,7 C 12,8 C 90 % 1012,9 hPa 0,0 l/m 2 min 0 min 0,0 UV-I 134 W/m 38,9 km/h (6 Bft)
17.08.2014 08:06 13,7 C 12,8 C 90 % 1012,9 hPa 0,0 l/m 2 min 0 min 0,0 UV-I 144 W/m 35,4 km/h (5 Bft)
17.08.2014 08:08 13,8 C 12,8 C 90 % 1012,8 hPa 0,0 l/m 2 min 0 min 0,0 UV-I 145 W/m 31,7 km/h (5 Bft)
17.08.2014 08:10 13,8 C 12,8 C 90 % 1012,8 hPa 0,0 l/m 2 min 0 min 0,0 UV-I 138 W/m 42,4 km/h (6 Bft)
17.08.2014 08:12 13,8 C 12,8 C 90 % 1012,8 hPa 0,0 l/m 2 min 0 min 0,0 UV-I 161 W/m 38,9 km/h (6 Bft)
17.08.2014 08:14 13,9 C 12,8 C 90 % 1012,8 hPa 0,0 l/m 2 min 0 min 0,0 UV-I 146 W/m 42,4 km/h (6 Bft)
17.08.2014 08:16 13,9 C 12,8 C 89 % 1012,8 hPa 0,0 l/m 2 min 0 min 0,0 UV-I 157 W/m 28,2 km/h (4 Bft)
17.08.2014 08:18 14,0 C 12,8 C 89 % 1012,7 hPa 0,0 l/m 2 min 0 min 0,0 UV-I 230 W/m 38,9 km/h (6 Bft)
17.08.2014 08:20 14,1 C 13,3 C 89 % 1012,8 hPa 0,0 l/m 2 min 0 min 0,0 UV-I 217 W/m 42,4 km/h (6 Bft)
17.08.2014 08:22 14,2 C 13,3 C 89 % 1012,7 hPa 0,0 l/m 2 min 0 min 0,0 UV-I 230 W/m 38,9 km/h (6 Bft)
17.08.2014 08:24 14,2 C 13,3 C 89 % 1012,7 hPa 0,0 l/m 2 min 0 min 0,0 UV-I 185 W/m 42,4 km/h (6 Bft)
17.08.2014 08:26 14,2 C 13,3 C 89 % 1012,7 hPa 0,0 l/m 2 min 0 min 0,0 UV-I 189 W/m 53,0 km/h (7 Bft)
17.08.2014 08:28 14,2 C 13,3 C 89 % 1012,7 hPa 0,0 l/m 2 min 0 min 0,0 UV-I 172 W/m 31,7 km/h (5 Bft)
17.08.2014 08:30 14,2 C 13,3 C 88 % 1012,7 hPa 0,0 l/m 0 min 0 min 0,0 UV-I 130 W/m 46,0 km/h (6 Bft)
17.08.2014 08:32 14,3 C 13,3 C 88 % 1012,7 hPa 0,0 l/m 0 min 0 min 0,0 UV-I 116 W/m 38,9 km/h (6 Bft)
17.08.2014 08:34 14,3 C 13,3 C 88 % 1012,6 hPa 0,0 l/m 0 min 0 min 0,0 UV-I 105 W/m 42,4 km/h (6 Bft)
17.08.2014 08:36 14,2 C 13,3 C 88 % 1012,6 hPa 0,0 l/m 0 min 0 min 0,0 UV-I 102 W/m 38,9 km/h (6 Bft)
17.08.2014 08:38 14,2 C 13,3 C 88 % 1012,6 hPa 0,0 l/m 0 min 0 min 0,0 UV-I 99 W/m 46,0 km/h (6 Bft)
17.08.2014 08:40 14,2 C 13,3 C 88 % 1012,6 hPa 0,0 l/m 0 min 0 min 0,0 UV-I 91 W/m 49,5 km/h (6 Bft)
17.08.2014 08:42 14,2 C 13,3 C 88 % 1012,7 hPa 0,0 l/m 0 min 0 min 0,0 UV-I 89 W/m 46,0 km/h (6 Bft)
17.08.2014 08:44 14,2 C 13,3 C 88 % 1012,7 hPa 0,0 l/m 0 min 0 min 0,0 UV-I 94 W/m 42,4 km/h (6 Bft)
17.08.2014 08:46 14,2 C 13,3 C 88 % 1012,6 hPa 0,0 l/m 0 min 0 min 0,0 UV-I 108 W/m 38,9 km/h (6 Bft)
17.08.2014 08:48 14,2 C 13,3 C 88 % 1012,6 hPa 0,0 l/m 0 min 0 min 0,0 UV-I 120 W/m 49,5 km/h (6 Bft)
17.08.2014 08:50 14,3 C 13,3 C 88 % 1012,6 hPa 0,0 l/m 0 min 0 min 0,0 UV-I 150 W/m 28,2 km/h (4 Bft)
17.08.2014 08:52 14,3 C 13,3 C 88 % 1012,6 hPa 0,0 l/m 0 min 0 min 0,0 UV-I 177 W/m 28,2 km/h (4 Bft)
17.08.2014 08:54 14,4 C 13,3 C 88 % 1012,6 hPa 0,0 l/m 0 min 0 min 0,0 UV-I 164 W/m 53,0 km/h (7 Bft)
17.08.2014 08:56 14,4 C 13,9 C 88 % 1012,6 hPa 0,0 l/m 2 min 0 min 0,0 UV-I 193 W/m 38,9 km/h (6 Bft)
17.08.2014 08:58 14,6 C 13,9 C 88 % 1012,6 hPa 0,0 l/m 2 min 0 min 0,0 UV-I 202 W/m 28,2 km/h (4 Bft)
17.08.2014 09:00 14,6 C 13,9 C 88 % 1012,6 hPa 0,0 l/m 0 min 0 min 0,0 UV-I 181 W/m 42,4 km/h (6 Bft)
17.08.2014 09:02 14,7 C 13,9 C 87 % 1012,6 hPa 0,0 l/m 0 min 0 min 0,0 UV-I 166 W/m 31,7 km/h (5 Bft)
17.08.2014 09:04 14,7 C 13,9 C 87 % 1012,6 hPa 0,0 l/m 0 min 0 min 0,0 UV-I 174 W/m 42,4 km/h (6 Bft)
17.08.2014 09:06 14,7 C 13,9 C 87 % 1012,6 hPa 0,0 l/m 2 min 0 min 0,1 UV-I 212 W/m 49,5 km/h (6 Bft)
17.08.2014 09:08 14,8 C 13,9 C 86 % 1012,6 hPa 0,0 l/m 2 min 0 min 0,4 UV-I 238 W/m 46,0 km/h (6 Bft)
17.08.2014 09:10 14,8 C 13,9 C 86 % 1012,5 hPa 0,0 l/m 2 min 0 min 0,2 UV-I 228 W/m 67,1 km/h (8 Bft)
17.08.2014 09:12 14,9 C 13,9 C 86 % 1012,4 hPa 0,0 l/m 2 min 0 min 0,1 UV-I 276 W/m 60,2 km/h (7 Bft)
17.08.2014 09:14 14,9 C 13,9 C 86 % 1012,5 hPa 0,0 l/m 2 min 0 min 0,4 UV-I 336 W/m 53,0 km/h (7 Bft)
17.08.2014 09:16 15,0 C 13,9 C 86 % 1012,5 hPa 0,0 l/m 0 min 0 min 0,0 UV-I 182 W/m 42,4 km/h (6 Bft)
17.08.2014 09:18 15,1 C 13,9 C 86 % 1012,4 hPa 0,0 l/m 0 min 0 min 0,1 UV-I 208 W/m 60,2 km/h (7 Bft)
17.08.2014 09:20 15,1 C 13,9 C 85 % 1012,4 hPa 0,0 l/m 0 min 0 min 0,8 UV-I 214 W/m 56,5 km/h (7 Bft)
17.08.2014 09:22 15,2 C 13,9 C 85 % 1012,4 hPa 0,0 l/m 0 min 0 min 0,6 UV-I 214 W/m 63,7 km/h (8 Bft)
17.08.2014 09:24 15,2 C 13,9 C 85 % 1012,4 hPa 0,0 l/m 0 min 0 min 0,6 UV-I 214 W/m 56,5 km/h (7 Bft)
17.08.2014 09:26 15,2 C 13,9 C 85 % 1012,3 hPa 0,0 l/m 0 min 0 min 0,7 UV-I 214 W/m 53,0 km/h (7 Bft)
17.08.2014 09:28 15,3 C 13,9 C 84 % 1012,3 hPa 0,0 l/m 2 min 0 min 0,7 UV-I 504 W/m 46,0 km/h (6 Bft)
17.08.2014 09:30 15,4 C 13,9 C 84 % 1012,3 hPa 0,0 l/m 2 min 0 min 0,9 UV-I 510 W/m 56,5 km/h (7 Bft)
17.08.2014 09:32 15,4 C 14,4 C 84 % 1012,3 hPa 0,0 l/m 2 min 0 min 0,7 UV-I 309 W/m 56,5 km/h (7 Bft)
17.08.2014 09:34 15,6 C 14,4 C 84 % 1012,3 hPa 0,0 l/m 2 min 0 min 0,8 UV-I 548 W/m 53,0 km/h (7 Bft)
17.08.2014 09:36 15,7 C 15,0 C 84 % 1012,3 hPa 0,0 l/m 2 min 0 min 0,8 UV-I 359 W/m 70,6 km/h (8 Bft)
17.08.2014 09:38 15,7 C 15,0 C 83 % 1012,2 hPa 0,0 l/m 2 min 0 min 0,8 UV-I 504 W/m 60,2 km/h (7 Bft)
17.08.2014 09:40 15,7 C 15,0 C 83 % 1012,2 hPa 0,0 l/m 2 min 0 min 0,9 UV-I 362 W/m 63,7 km/h (8 Bft)
17.08.2014 09:42 15,8 C 15,0 C 83 % 1012,2 hPa 0,0 l/m 2 min 0 min 0,8 UV-I 385 W/m 46,0 km/h (6 Bft)
17.08.2014 09:44 15,9 C 15,0 C 83 % 1012,3 hPa 0,0 l/m 2 min 0 min 0,5 UV-I 594 W/m 56,5 km/h (7 Bft)
17.08.2014 09:46 15,9 C 15,0 C 83 % 1012,2 hPa 0,0 l/m 2 min 0 min 0,3 UV-I 404 W/m 56,5 km/h (7 Bft)
17.08.2014 09:48 16,0 C 15,6 C 83 % 1012,2 hPa 0,0 l/m 2 min 0 min 0,6 UV-I 283 W/m 28,2 km/h (4 Bft)
17.08.2014 09:50 16,1 C 15,6 C 83 % 1012,2 hPa 0,0 l/m 2 min 0 min 0,9 UV-I 337 W/m 42,4 km/h (6 Bft)
17.08.2014 09:52 16,1 C 16,1 C 81 % 1012,1 hPa 0,0 l/m 2 min 0 min 1,0 UV-I 338 W/m 70,6 km/h (8 Bft)
17.08.2014 09:54 16,1 C 16,1 C 82 % 1012,2 hPa 0,0 l/m 2 min 0 min 0,9 UV-I 381 W/m 46,0 km/h (6 Bft)
17.08.2014 09:56 16,2 C 16,1 C 82 % 1012,2 hPa 0,0 l/m 2 min 0 min 0,7 UV-I 326 W/m 38,9 km/h (6 Bft)
17.08.2014 09:58 16,2 C 15,6 C 82 % 1012,1 hPa 0,0 l/m 0 min 0 min 0,0 UV-I 208 W/m 38,9 km/h (6 Bft)
17.08.2014 10:00 16,1 C 15,6 C 82 % 1012,1 hPa 0,0 l/m 0 min 0 min 0,0 UV-I 178 W/m 31,7 km/h (5 Bft)
17.08.2014 10:02 16,0 C 15,0 C 82 % 1012,1 hPa 0,0 l/m 0 min 0 min 0,2 UV-I 226 W/m 42,4 km/h (6 Bft)
17.08.2014 10:04 15,9 C 15,0 C 82 % 1012,0 hPa 0,0 l/m 0 min 0 min 0,2 UV-I 216 W/m 49,5 km/h (6 Bft)
17.08.2014 10:06 15,8 C 15,0 C 82 % 1012,0 hPa 0,0 l/m 0 min 0 min 0,0 UV-I 196 W/m 60,2 km/h (7 Bft)
17.08.2014 10:08 15,8 C 15,0 C 82 % 1012,0 hPa 0,0 l/m 0 min 0 min 0,0 UV-I 157 W/m 35,4 km/h (5 Bft)
17.08.2014 10:10 15,8 C 15,0 C 82 % 1012,0 hPa 0,0 l/m 0 min 0 min 0,0 UV-I 124 W/m 46,0 km/h (6 Bft)
17.08.2014 10:12 15,7 C 14,4 C 82 % 1012,0 hPa 0,0 l/m 0 min 0 min 0,0 UV-I 78 W/m 42,4 km/h (6 Bft)
17.08.2014 10:14 15,6 C 14,4 C 83 % 1011,9 hPa 0,0 l/m 0 min 0 min 0,0 UV-I 80 W/m 46,0 km/h (6 Bft)
17.08.2014 10:16 15,6 C 14,4 C 83 % 1011,9 hPa 0,0 l/m 0 min 0 min 0,0 UV-I 88 W/m 42,4 km/h (6 Bft)
17.08.2014 10:18 15,5 C 14,4 C 84 % 1011,9 hPa 0,0 l/m 0 min 0 min 0,0 UV-I 103 W/m 46,0 km/h (6 Bft)
17.08.2014 10:20 15,5 C 14,4 C 84 % 1011,9 hPa 0,0 l/m 0 min 0 min 0,0 UV-I 94 W/m 24,7 km/h (4 Bft)
17.08.2014 10:22 15,4 C 14,4 C 84 % 1011,9 hPa 0,0 l/m 0 min 0 min 0,0 UV-I 123 W/m 28,2 km/h (4 Bft)
17.08.2014 10:24 15,5 C 14,4 C 84 % 1011,9 hPa 0,0 l/m 0 min 0 min 0,0 UV-I 146 W/m 35,4 km/h (5 Bft)
17.08.2014 10:26 15,5 C 14,4 C 84 % 1012,0 hPa 0,0 l/m 0 min 0 min 0,0 UV-I 139 W/m 49,5 km/h (6 Bft)
17.08.2014 10:28 15,5 C 14,4 C 83 % 1011,9 hPa 0,0 l/m 0 min 0 min 0,0 UV-I 136 W/m 46,0 km/h (6 Bft)
17.08.2014 10:30 15,5 C 14,4 C 83 % 1011,9 hPa 0,0 l/m 0 min 0 min 0,0 UV-I 108 W/m 35,4 km/h (5 Bft)
17.08.2014 10:32 15,5 C 14,4 C 84 % 1011,9 hPa 0,0 l/m 0 min 0 min 0,0 UV-I 127 W/m 46,0 km/h (6 Bft)
17.08.2014 10:34 15,6 C 14,4 C 83 % 1011,9 hPa 0,0 l/m 0 min 0 min 0,2 UV-I 164 W/m 46,0 km/h (6 Bft)
17.08.2014 10:36 15,6 C 14,4 C 83 % 1011,9 hPa 0,0 l/m 0 min 0 min 0,0 UV-I 144 W/m 56,5 km/h (7 Bft)
17.08.2014 10:38 15,6 C 15,0 C 83 % 1011,9 hPa 0,0 l/m 0 min 0 min 0,4 UV-I 189 W/m 28,2 km/h (4 Bft)
17.08.2014 10:40 15,7 C 15,0 C 83 % 1011,8 hPa 0,0 l/m 0 min 0 min 1,2 UV-I 265 W/m 42,4 km/h (6 Bft)
17.08.2014 10:42 15,8 C 15,0 C 82 % 1011,8 hPa 0,0 l/m 0 min 0 min 1,2 UV-I 293 W/m 46,0 km/h (6 Bft)
17.08.2014 10:44 15,9 C 15,6 C 82 % 1011,7 hPa 0,0 l/m 0 min 0 min 1,1 UV-I 281 W/m 49,5 km/h (6 Bft)
17.08.2014 10:46 16,0 C 15,6 C 83 % 1011,8 hPa 0,0 l/m 0 min 0 min 1,0 UV-I 262 W/m 38,9 km/h (6 Bft)
17.08.2014 10:48 16,1 C 15,6 C 81 % 1011,8 hPa 0,0 l/m 0 min 0 min 1,0 UV-I 256 W/m 63,7 km/h (8 Bft)
17.08.2014 10:50 16,1 C 15,6 C 81 % 1011,7 hPa 0,0 l/m 0 min 0 min 1,0 UV-I 249 W/m 56,5 km/h (7 Bft)
17.08.2014 10:52 16,2 C 15,6 C 81 % 1011,6 hPa 0,0 l/m 0 min 0 min 1,2 UV-I 291 W/m 31,7 km/h (5 Bft)
17.08.2014 10:54 16,3 C 15,6 C 81 % 1011,6 hPa 0,0 l/m 0 min 0 min 1,2 UV-I 300 W/m 38,9 km/h (6 Bft)
17.08.2014 10:56 16,3 C 16,1 C 81 % 1011,6 hPa 0,0 l/m 2 min 0 min 1,4 UV-I 323 W/m 49,5 km/h (6 Bft)
17.08.2014 10:58 16,4 C 16,1 C 80 % 1011,6 hPa 0,0 l/m 2 min 0 min 1,6 UV-I 373 W/m 56,5 km/h (7 Bft)
17.08.2014 11:00 16,6 C 16,1 C 80 % 1011,6 hPa 0,0 l/m 2 min 0 min 1,4 UV-I 332 W/m 53,0 km/h (7 Bft)
17.08.2014 11:02 16,6 C 16,1 C 79 % 1011,6 hPa 0,0 l/m 2 min 0 min 1,4 UV-I 322 W/m 53,0 km/h (7 Bft)
17.08.2014 11:04 16,6 C 16,1 C 79 % 1011,7 hPa 0,0 l/m 0 min 0 min 1,3 UV-I 293 W/m 42,4 km/h (6 Bft)
17.08.2014 11:06 16,6 C 16,1 C 78 % 1011,7 hPa 0,0 l/m 0 min 0 min 1,4 UV-I 301 W/m 77,7 km/h (9 Bft)
17.08.2014 11:08 16,6 C 16,1 C 78 % 1011,6 hPa 0,0 l/m 0 min 0 min 1,3 UV-I 288 W/m 56,5 km/h (7 Bft)
17.08.2014 11:10 16,6 C 15,6 C 78 % 1011,6 hPa 0,0 l/m 0 min 0 min 1,0 UV-I 256 W/m 53,0 km/h (7 Bft)
17.08.2014 11:12 16,6 C 16,1 C 78 % 1011,7 hPa 0,0 l/m 0 min 0 min 1,1 UV-I 261 W/m 46,0 km/h (6 Bft)
17.08.2014 11:14 16,7 C 16,1 C 79 % 1011,7 hPa 0,0 l/m 0 min 0 min 1,0 UV-I 245 W/m 53,0 km/h (7 Bft)
17.08.2014 11:16 16,6 C 15,6 C 78 % 1011,5 hPa 0,0 l/m 0 min 0 min 0,2 UV-I 184 W/m 60,2 km/h (7 Bft)
17.08.2014 11:18 16,6 C 15,6 C 78 % 1011,6 hPa 0,0 l/m 0 min 0 min 0,2 UV-I 170 W/m 56,5 km/h (7 Bft)
17.08.2014 11:20 16,5 C 15,6 C 78 % 1011,6 hPa 0,0 l/m 0 min 0 min 0,5 UV-I 171 W/m 60,2 km/h (7 Bft)
17.08.2014 11:22 16,4 C 15,0 C 77 % 1011,5 hPa 0,0 l/m 0 min 0 min 0,7 UV-I 189 W/m 77,7 km/h (9 Bft)
17.08.2014 11:24 16,4 C 15,0 C 77 % 1011,6 hPa 0,0 l/m 0 min 0 min 0,7 UV-I 199 W/m 60,2 km/h (7 Bft)
17.08.2014 11:26 16,4 C 15,0 C 78 % 1011,6 hPa 0,0 l/m 0 min 0 min 0,3 UV-I 171 W/m 67,1 km/h (8 Bft)
17.08.2014 11:28 16,4 C 15,0 C 78 % 1011,5 hPa 0,0 l/m 0 min 0 min 0,0 UV-I 122 W/m 53,0 km/h (7 Bft)
17.08.2014 11:30 16,4 C 15,0 C 78 % 1011,6 hPa 0,0 l/m 0 min 0 min 0,0 UV-I 117 W/m 38,9 km/h (6 Bft)
17.08.2014 11:32 16,3 C 15,0 C 79 % 1011,6 hPa 0,0 l/m 0 min 0 min 0,0 UV-I 122 W/m 63,7 km/h (8 Bft)
17.08.2014 11:34 16,3 C 15,0 C 78 % 1011,5 hPa 0,0 l/m 0 min 0 min 0,0 UV-I 110 W/m 53,0 km/h (7 Bft)
17.08.2014 11:36 16,3 C 15,0 C 79 % 1011,6 hPa 0,0 l/m 0 min 2 min 0,0 UV-I 100 W/m 53,0 km/h (7 Bft)
17.08.2014 11:38 16,2 C 15,0 C 78 % 1011,5 hPa 0,0 l/m 0 min 2 min 0,0 UV-I 86 W/m 60,2 km/h (7 Bft)
17.08.2014 11:40 16,1 C 15,0 C 79 % 1011,6 hPa 0,0 l/m 0 min 0 min 0,0 UV-I 90 W/m 53,0 km/h (7 Bft)
17.08.2014 11:42 16,1 C 15,0 C 79 % 1011,5 hPa 0,0 l/m 0 min 0 min 0,0 UV-I 101 W/m 60,2 km/h (7 Bft)
17.08.2014 11:44 16,0 C 15,0 C 79 % 1011,5 hPa 0,0 l/m 0 min 0 min 0,0 UV-I 114 W/m 53,0 km/h (7 Bft)
17.08.2014 11:46 16,0 C 15,0 C 79 % 1011,5 hPa 0,0 l/m 0 min 0 min 0,0 UV-I 128 W/m 46,0 km/h (6 Bft)
17.08.2014 11:48 16,0 C 15,0 C 79 % 1011,5 hPa 0,0 l/m 0 min 0 min 0,0 UV-I 125 W/m 46,0 km/h (6 Bft)
17.08.2014 11:50 16,0 C 15,0 C 80 % 1011,4 hPa 0,0 l/m 0 min 0 min 0,0 UV-I 136 W/m 35,4 km/h (5 Bft)
17.08.2014 11:52 16,0 C 15,0 C 80 % 1011,4 hPa 0,0 l/m 0 min 0 min 0,5 UV-I 168 W/m 46,0 km/h (6 Bft)
17.08.2014 11:54 16,1 C 15,0 C 80 % 1011,4 hPa 0,0 l/m 0 min 0 min 0,3 UV-I 148 W/m 53,0 km/h (7 Bft)
17.08.2014 11:56 16,1 C 15,0 C 80 % 1011,3 hPa 0,0 l/m 0 min 0 min 0,0 UV-I 127 W/m 56,5 km/h (7 Bft)
17.08.2014 11:58 16,1 C 15,0 C 80 % 1011,4 hPa 0,0 l/m 0 min 0 min 0,5 UV-I 149 W/m 38,9 km/h (6 Bft)
17.08.2014 12:00 16,2 C 15,0 C 80 % 1011,4 hPa 0,0 l/m 0 min 0 min 0,7 UV-I 178 W/m 53,0 km/h (7 Bft)
17.08.2014 12:02 16,2 C 15,6 C 80 % 1011,4 hPa 0,0 l/m 0 min 0 min 0,9 UV-I 194 W/m 38,9 km/h (6 Bft)
17.08.2014 12:06 16,2 C 15,0 C 80 % 1011,2 hPa 0,0 l/m 0 min 0 min 0,6 UV-I 155 W/m 77,7 km/h (9 Bft)
17.08.2014 12:08 16,2 C 15,0 C 80 % 1011,1 hPa 0,0 l/m 0 min 0 min 0,6 UV-I 155 W/m 60,2 km/h (7 Bft)
17.08.2014 12:10 16,2 C 15,0 C 79 % 1011,1 hPa 0,0 l/m 0 min 0 min 0,4 UV-I 131 W/m 63,7 km/h (8 Bft)
17.08.2014 12:12 16,2 C 15,0 C 79 % 1011,2 hPa 0,0 l/m 0 min 0 min 0,0 UV-I 109 W/m 63,7 km/h (8 Bft)
17.08.2014 12:14 16,1 C 15,0 C 79 % 1011,1 hPa 0,0 l/m 0 min 0 min 0,0 UV-I 87 W/m 60,2 km/h (7 Bft)
17.08.2014 12:16 16,1 C 15,0 C 80 % 1011,1 hPa 0,0 l/m 0 min 0 min 0,0 UV-I 108 W/m 99,1 km/h (10 Bft)
17.08.2014 12:18 15,9 C 15,0 C 80 % 1011,2 hPa 0,0 l/m 0 min 0 min 0,5 UV-I 152 W/m 77,7 km/h (9 Bft)
17.08.2014 12:20 15,8 C 15,0 C 81 % 1011,3 hPa 0,0 l/m 0 min 0 min 0,6 UV-I 153 W/m 42,4 km/h (6 Bft)
17.08.2014 12:22 15,8 C 14,4 C 81 % 1011,2 hPa 0,0 l/m 0 min 0 min 0,0 UV-I 84 W/m 53,0 km/h (7 Bft)
17.08.2014 12:24 15,7 C 14,4 C 81 % 1011,2 hPa 0,0 l/m 0 min 0 min 0,0 UV-I 76 W/m 84,9 km/h (9 Bft)
17.08.2014 12:26 15,5 C 13,9 C 83 % 1011,2 hPa 0,0 l/m 0 min 2 min 0,1 UV-I 127 W/m 70,6 km/h (8 Bft)
17.08.2014 12:28 15,2 C 13,9 C 85 % 1011,3 hPa 0,0 l/m 0 min 2 min 0,9 UV-I 195 W/m 67,1 km/h (8 Bft)
17.08.2014 12:30 15,0 C 13,9 C 86 % 1011,2 hPa 0,0 l/m 0 min 2 min 0,9 UV-I 180 W/m 60,2 km/h (7 Bft)
17.08.2014 12:32 14,9 C 13,9 C 87 % 1011,1 hPa 0,0 l/m 0 min 2 min 0,8 UV-I 190 W/m 60,2 km/h (7 Bft)
17.08.2014 12:34 14,9 C 13,9 C 88 % 1011,0 hPa 0,0 l/m 0 min 2 min 1,5 UV-I 271 W/m 53,0 km/h (7 Bft)
17.08.2014 12:36 14,9 C 14,4 C 88 % 1010,9 hPa 0,0 l/m 0 min 0 min 1,8 UV-I 301 W/m 63,7 km/h (8 Bft)
17.08.2014 12:38 15,1 C 14,4 C 87 % 1011,0 hPa 0,0 l/m 0 min 0 min 1,5 UV-I 260 W/m 46,0 km/h (6 Bft)
17.08.2014 12:40 15,2 C 15,0 C 87 % 1010,9 hPa 0,0 l/m 0 min 0 min 1,2 UV-I 224 W/m 49,5 km/h (6 Bft)
17.08.2014 12:42 15,3 C 15,0 C 87 % 1010,9 hPa 0,0 l/m 0 min 0 min 1,1 UV-I 224 W/m 70,6 km/h (8 Bft)
17.08.2014 12:44 15,4 C 15,0 C 86 % 1011,0 hPa 0,0 l/m 0 min 0 min 1,6 UV-I 274 W/m 60,2 km/h (7 Bft)
17.08.2014 12:46 15,5 C 15,0 C 85 % 1010,9 hPa 0,0 l/m 0 min 0 min 1,4 UV-I 259 W/m 67,1 km/h (8 Bft)
17.08.2014 12:48 15,6 C 15,0 C 84 % 1010,9 hPa 0,0 l/m 0 min 0 min 1,3 UV-I 244 W/m 67,1 km/h (8 Bft)
17.08.2014 12:50 15,7 C 15,6 C 84 % 1010,9 hPa 0,0 l/m 0 min 0 min 1,6 UV-I 280 W/m 60,2 km/h (7 Bft)
17.08.2014 12:52 16,0 C 15,6 C 84 % 1010,8 hPa 0,0 l/m 0 min 0 min 1,9 UV-I 314 W/m 42,4 km/h (6 Bft)
17.08.2014 12:54 16,1 C 16,1 C 84 % 1010,8 hPa 0,0 l/m 0 min 0 min 2,0 UV-I 322 W/m 53,0 km/h (7 Bft)
17.08.2014 12:56 16,2 C 15,6 C 83 % 1010,8 hPa 0,0 l/m 0 min 0 min 1,4 UV-I 256 W/m 67,1 km/h (8 Bft)
17.08.2014 12:58 16,2 C 15,6 C 82 % 1010,8 hPa 0,0 l/m 0 min 0 min 1,4 UV-I 294 W/m 60,2 km/h (7 Bft)
17.08.2014 13:00 16,3 C 16,1 C 81 % 1010,6 hPa 0,0 l/m 2 min 0 min 2,5 UV-I 380 W/m 60,2 km/h (7 Bft)
17.08.2014 13:02 16,5 C 16,1 C 81 % 1010,6 hPa 0,0 l/m 2 min 0 min 3,0 UV-I 434 W/m 60,2 km/h (7 Bft)
17.08.2014 13:04 16,8 C 16,7 C 81 % 1010,6 hPa 0,0 l/m 2 min 0 min 3,1 UV-I 593 W/m 42,4 km/h (6 Bft)
17.08.2014 13:06 17,0 C 16,7 C 80 % 1010,5 hPa 0,0 l/m 2 min 0 min 3,2 UV-I 448 W/m 67,1 km/h (8 Bft)
17.08.2014 13:08 17,1 C 17,2 C 79 % 1010,6 hPa 0,0 l/m 2 min 0 min 3,8 UV-I 495 W/m 56,5 km/h (7 Bft)
17.08.2014 13:10 17,3 C 17,2 C 79 % 1010,5 hPa 0,0 l/m 2 min 0 min 3,3 UV-I 494 W/m 46,0 km/h (6 Bft)
17.08.2014 13:12 17,3 C 17,2 C 79 % 1010,5 hPa 0,0 l/m 0 min 0 min 1,5 UV-I 245 W/m 53,0 km/h (7 Bft)
17.08.2014 13:14 17,3 C 16,7 C 79 % 1010,5 hPa 0,0 l/m 0 min 0 min 1,5 UV-I 271 W/m 31,7 km/h (5 Bft)
17.08.2014 13:16 17,4 C 16,7 C 79 % 1010,4 hPa 0,0 l/m 0 min 0 min 1,7 UV-I 345 W/m 46,0 km/h (6 Bft)
17.08.2014 13:18 17,5 C 17,2 C 79 % 1010,3 hPa 0,0 l/m 2 min 0 min 3,2 UV-I 532 W/m 46,0 km/h (6 Bft)
17.08.2014 13:20 17,7 C 17,8 C 78 % 1010,3 hPa 0,0 l/m 2 min 0 min 3,3 UV-I 673 W/m 70,6 km/h (8 Bft)
17.08.2014 13:22 17,7 C 17,2 C 76 % 1010,4 hPa 0,0 l/m 2 min 0 min 2,8 UV-I 684 W/m 67,1 km/h (8 Bft)
17.08.2014 13:24 17,6 C 17,2 C 76 % 1010,4 hPa 0,0 l/m 0 min 0 min 1,6 UV-I 288 W/m 70,6 km/h (8 Bft)
17.08.2014 13:26 17,5 C 16,7 C 75 % 1010,3 hPa 0,0 l/m 0 min 0 min 2,1 UV-I 354 W/m 67,1 km/h (8 Bft)
17.08.2014 13:28 17,6 C 17,2 C 76 % 1010,3 hPa 0,0 l/m 0 min 0 min 2,4 UV-I 372 W/m 56,5 km/h (7 Bft)
17.08.2014 13:30 17,6 C 17,2 C 75 % 1010,3 hPa 0,0 l/m 0 min 0 min 1,9 UV-I 300 W/m 70,6 km/h (8 Bft)
17.08.2014 13:32 17,4 C 16,7 C 75 % 1010,2 hPa 0,0 l/m 0 min 0 min 1,4 UV-I 223 W/m 53,0 km/h (7 Bft)
17.08.2014 13:34 17,4 C 16,7 C 75 % 1010,2 hPa 0,0 l/m 0 min 0 min 0,7 UV-I 153 W/m 60,2 km/h (7 Bft)
17.08.2014 13:36 17,2 C 16,1 C 75 % 1010,2 hPa 0,0 l/m 0 min 0 min 0,0 UV-I 105 W/m 46,0 km/h (6 Bft)
17.08.2014 13:38 17,1 C 16,1 C 76 % 1010,2 hPa 0,0 l/m 0 min 0 min 0,0 UV-I 107 W/m 56,5 km/h (7 Bft)
17.08.2014 13:40 17,0 C 16,1 C 77 % 1010,2 hPa 0,0 l/m 0 min 2 min 0,2 UV-I 120 W/m 35,4 km/h (5 Bft)
17.08.2014 13:42 16,9 C 15,6 C 77 % 1010,2 hPa 0,0 l/m 0 min 0 min 0,0 UV-I 111 W/m 49,5 km/h (6 Bft)
17.08.2014 13:44 16,9 C 15,6 C 77 % 1010,2 hPa 0,0 l/m 0 min 0 min 0,0 UV-I 102 W/m 60,2 km/h (7 Bft)
17.08.2014 13:46 16,8 C 15,6 C 77 % 1010,2 hPa 0,0 l/m 0 min 0 min 0,0 UV-I 112 W/m 49,5 km/h (6 Bft)
17.08.2014 13:48 16,7 C 15,6 C 77 % 1010,2 hPa 0,0 l/m 0 min 0 min 0,4 UV-I 141 W/m 42,4 km/h (6 Bft)
17.08.2014 13:50 16,8 C 16,1 C 78 % 1010,2 hPa 0,0 l/m 0 min 2 min 1,5 UV-I 277 W/m 42,4 km/h (6 Bft)
17.08.2014 13:52 16,8 C 16,1 C 77 % 1010,2 hPa 0,0 l/m 0 min 0 min 2,0 UV-I 341 W/m 70,6 km/h (8 Bft)
17.08.2014 13:54 17,0 C 16,7 C 77 % 1010,1 hPa 0,0 l/m 2 min 0 min 2,7 UV-I 458 W/m 67,1 km/h (8 Bft)
17.08.2014 13:56 17,2 C 16,7 C 77 % 1010,0 hPa 0,0 l/m 2 min 0 min 3,0 UV-I 435 W/m 53,0 km/h (7 Bft)
17.08.2014 13:58 17,4 C 17,2 C 75 % 1009,9 hPa 0,0 l/m 2 min 0 min 3,9 UV-I 465 W/m 56,5 km/h (7 Bft)
17.08.2014 14:00 17,7 C 17,8 C 75 % 1010,0 hPa 0,0 l/m 2 min 0 min 3,3 UV-I 505 W/m 56,5 km/h (7 Bft)
17.08.2014 14:02 18,0 C 17,8 C 75 % 1009,8 hPa 0,0 l/m 2 min 0 min 3,8 UV-I 511 W/m 81,2 km/h (9 Bft)
17.08.2014 14:04 18,1 C 17,8 C 74 % 1009,8 hPa 0,0 l/m 2 min 0 min 2,6 UV-I 429 W/m 60,2 km/h (7 Bft)
17.08.2014 14:06 18,2 C 17,8 C 74 % 1009,8 hPa 0,0 l/m 2 min 0 min 2,6 UV-I 458 W/m 63,7 km/h (8 Bft)
17.08.2014 14:08 18,2 C 17,8 C 73 % 1009,8 hPa 0,0 l/m 0 min 0 min 2,1 UV-I 346 W/m 77,7 km/h (9 Bft)
17.08.2014 14:10 18,1 C 17,2 C 73 % 1009,8 hPa 0,0 l/m 0 min 0 min 1,6 UV-I 249 W/m 67,1 km/h (8 Bft)
17.08.2014 14:12 17,9 C 17,2 C 73 % 1009,8 hPa 0,0 l/m 0 min 0 min 1,4 UV-I 252 W/m 70,6 km/h (8 Bft)
17.08.2014 14:14 17,8 C 16,7 C 73 % 1009,8 hPa 0,0 l/m 0 min 0 min 1,4 UV-I 269 W/m 49,5 km/h (6 Bft)
17.08.2014 14:16 17,7 C 16,7 C 74 % 1009,8 hPa 0,0 l/m 0 min 0 min 1,4 UV-I 251 W/m 91,9 km/h (10 Bft)
17.08.2014 14:18 17,6 C 16,7 C 74 % 1009,8 hPa 0,0 l/m 0 min 0 min 1,0 UV-I 216 W/m 56,5 km/h (7 Bft)
17.08.2014 14:20 17,5 C 16,7 C 75 % 1009,7 hPa 0,0 l/m 0 min 0 min 1,1 UV-I 218 W/m 67,1 km/h (8 Bft)
17.08.2014 14:22 17,4 C 16,7 C 75 % 1009,8 hPa 0,0 l/m 0 min 0 min 1,5 UV-I 278 W/m 70,6 km/h (8 Bft)
17.08.2014 14:24 17,4 C 16,7 C 75 % 1009,7 hPa 0,0 l/m 0 min 0 min 1,4 UV-I 254 W/m 77,7 km/h (9 Bft)
17.08.2014 14:26 17,4 C 16,7 C 76 % 1009,8 hPa 0,0 l/m 0 min 0 min 1,4 UV-I 295 W/m 63,7 km/h (8 Bft)
17.08.2014 14:28 17,4 C 16,7 C 75 % 1009,7 hPa 0,0 l/m 2 min 0 min 2,2 UV-I 405 W/m 70,6 km/h (8 Bft)
17.08.2014 14:30 17,5 C 17,2 C 76 % 1009,8 hPa 0,0 l/m 2 min 0 min 2,9 UV-I 496 W/m 70,6 km/h (8 Bft)
17.08.2014 14:32 17,7 C 17,2 C 75 % 1009,7 hPa 0,0 l/m 2 min 0 min 3,2 UV-I 550 W/m 67,1 km/h (8 Bft)
17.08.2014 14:34 17,9 C 17,8 C 75 % 1009,6 hPa 0,0 l/m 2 min 0 min 3,5 UV-I 548 W/m 74,2 km/h (8 Bft)
17.08.2014 14:36 18,1 C 17,8 C 75 % 1009,7 hPa 0,0 l/m 2 min 0 min 3,3 UV-I 533 W/m 63,7 km/h (8 Bft)
17.08.2014 14:38 18,2 C 17,8 C 74 % 1009,7 hPa 0,0 l/m 2 min 0 min 3,2 UV-I 547 W/m 77,7 km/h (9 Bft)
17.08.2014 14:40 18,2 C 17,8 C 73 % 1009,4 hPa 0,0 l/m 2 min 0 min 4,1 UV-I 543 W/m 70,6 km/h (8 Bft)
17.08.2014 14:42 18,3 C 18,3 C 73 % 1009,3 hPa 0,0 l/m 2 min 0 min 3,5 UV-I 543 W/m 63,7 km/h (8 Bft)
17.08.2014 14:44 18,4 C 18,3 C 73 % 1009,3 hPa 0,0 l/m 2 min 0 min 3,3 UV-I 543 W/m 56,5 km/h (7 Bft)
17.08.2014 14:46 18,7 C 18,3 C 73 % 1009,2 hPa 0,0 l/m 2 min 0 min 3,3 UV-I 504 W/m 74,2 km/h (8 Bft)
17.08.2014 14:48 18,6 C 17,8 C 72 % 1009,4 hPa 0,0 l/m 2 min 0 min 2,4 UV-I 371 W/m 74,2 km/h (8 Bft)
17.08.2014 14:50 18,4 C 17,8 C 72 % 1009,2 hPa 0,0 l/m 2 min 0 min 2,5 UV-I 403 W/m 38,9 km/h (6 Bft)
17.08.2014 14:52 18,6 C 18,3 C 74 % 1009,3 hPa 0,0 l/m 2 min 0 min 3,2 UV-I 455 W/m 56,5 km/h (7 Bft)
17.08.2014 14:54 18,7 C 18,3 C 73 % 1009,2 hPa 0,0 l/m 2 min 0 min 2,9 UV-I 423 W/m 81,2 km/h (9 Bft)
17.08.2014 14:56 18,6 C 18,3 C 72 % 1009,2 hPa 0,0 l/m 2 min 0 min 2,4 UV-I 371 W/m 49,5 km/h (6 Bft)
17.08.2014 14:58 18,5 C 17,8 C 72 % 1009,2 hPa 0,0 l/m 0 min 0 min 1,4 UV-I 245 W/m 53,0 km/h (7 Bft)
17.08.2014 15:00 18,3 C 17,2 C 72 % 1009,2 hPa 0,0 l/m 0 min 0 min 0,9 UV-I 186 W/m 77,7 km/h (9 Bft)
17.08.2014 15:02 18,2 C 16,7 C 72 % 1009,2 hPa 0,0 l/m 0 min 0 min 0,1 UV-I 127 W/m 63,7 km/h (8 Bft)
17.08.2014 15:04 18,0 C 16,7 C 72 % 1009,3 hPa 0,0 l/m 0 min 0 min 0,0 UV-I 125 W/m 81,2 km/h (9 Bft)
17.08.2014 15:06 17,8 C 16,7 C 73 % 1009,3 hPa 0,0 l/m 0 min 0 min 0,0 UV-I 109 W/m 74,2 km/h (8 Bft)
17.08.2014 15:08 17,7 C 16,1 C 73 % 1009,3 hPa 0,0 l/m 0 min 0 min 0,0 UV-I 98 W/m 81,2 km/h (9 Bft)
17.08.2014 15:10 17,6 C 16,1 C 73 % 1009,3 hPa 0,0 l/m 0 min 0 min 0,0 UV-I 111 W/m 81,2 km/h (9 Bft)
17.08.2014 15:12 17,5 C 16,1 C 74 % 1009,3 hPa 0,0 l/m 0 min 0 min 0,0 UV-I 102 W/m 88,4 km/h (10 Bft)
17.08.2014 15:14 17,4 C 16,1 C 74 % 1009,5 hPa 0,0 l/m 0 min 0 min 0,0 UV-I 131 W/m 74,2 km/h (8 Bft)
17.08.2014 15:16 17,3 C 16,1 C 74 % 1009,4 hPa 0,0 l/m 0 min 0 min 0,5 UV-I 144 W/m 67,1 km/h (8 Bft)
17.08.2014 15:18 17,3 C 16,1 C 74 % 1009,3 hPa 0,0 l/m 0 min 0 min 0,6 UV-I 162 W/m 67,1 km/h (8 Bft)
17.08.2014 15:20 17,3 C 16,1 C 75 % 1009,4 hPa 0,0 l/m 0 min 0 min 0,6 UV-I 173 W/m 38,9 km/h (6 Bft)
17.08.2014 15:22 17,3 C 16,7 C 75 % 1009,3 hPa 0,0 l/m 0 min 0 min 1,0 UV-I 227 W/m 63,7 km/h (8 Bft)
17.08.2014 15:24 17,3 C 16,7 C 75 % 1009,3 hPa 0,0 l/m 0 min 0 min 1,4 UV-I 275 W/m 77,7 km/h (9 Bft)
17.08.2014 15:26 17,4 C 16,7 C 76 % 1009,2 hPa 0,0 l/m 0 min 0 min 1,6 UV-I 311 W/m 53,0 km/h (7 Bft)
17.08.2014 15:28 17,5 C 17,2 C 76 % 1009,1 hPa 0,0 l/m 2 min 0 min 1,9 UV-I 352 W/m 53,0 km/h (7 Bft)
17.08.2014 15:30 17,7 C 17,2 C 76 % 1009,1 hPa 0,0 l/m 2 min 0 min 2,2 UV-I 434 W/m 63,7 km/h (8 Bft)
17.08.2014 15:32 17,9 C 17,8 C 75 % 1009,1 hPa 0,0 l/m 2 min 0 min 2,7 UV-I 456 W/m 60,2 km/h (7 Bft)
17.08.2014 15:34 18,2 C 17,8 C 74 % 1009,1 hPa 0,0 l/m 0 min 0 min 2,2 UV-I 333 W/m 49,5 km/h (6 Bft)
17.08.2014 15:36 18,2 C 17,8 C 73 % 1009,1 hPa 0,0 l/m 0 min 0 min 1,8 UV-I 337 W/m 60,2 km/h (7 Bft)
17.08.2014 15:38 18,1 C 17,2 C 73 % 1009,1 hPa 0,0 l/m 0 min 0 min 1,4 UV-I 265 W/m 56,5 km/h (7 Bft)
17.08.2014 15:40 18,1 C 17,2 C 74 % 1009,1 hPa 0,0 l/m 0 min 0 min 0,9 UV-I 210 W/m 67,1 km/h (8 Bft)
17.08.2014 15:42 18,0 C 17,2 C 73 % 1009,0 hPa 0,0 l/m 0 min 0 min 0,8 UV-I 187 W/m 60,2 km/h (7 Bft)
17.08.2014 15:44 17,9 C 16,7 C 73 % 1009,0 hPa 0,0 l/m 0 min 0 min 0,6 UV-I 162 W/m 77,7 km/h (9 Bft)
17.08.2014 15:46 17,8 C 16,7 C 73 % 1009,1 hPa 0,0 l/m 0 min 0 min 0,6 UV-I 165 W/m 70,6 km/h (8 Bft)
17.08.2014 15:48 17,7 C 16,7 C 73 % 1009,1 hPa 0,0 l/m 0 min 0 min 0,4 UV-I 153 W/m 84,9 km/h (9 Bft)
17.08.2014 15:50 17,5 C 16,1 C 73 % 1009,2 hPa 0,0 l/m 0 min 0 min 0,0 UV-I 143 W/m 106,1 km/h (11 Bft)
17.08.2014 15:52 17,4 C 16,1 C 75 % 1009,1 hPa 0,0 l/m 0 min 0 min 0,0 UV-I 140 W/m 77,7 km/h (9 Bft)
17.08.2014 15:54 17,2 C 16,1 C 75 % 1009,1 hPa 0,0 l/m 0 min 0 min 0,0 UV-I 139 W/m 70,6 km/h (8 Bft)
17.08.2014 15:56 17,1 C 16,1 C 76 % 1009,2 hPa 0,0 l/m 0 min 0 min 0,6 UV-I 174 W/m 63,7 km/h (8 Bft)
17.08.2014 15:58 17,0 C 16,1 C 77 % 1009,2 hPa 0,0 l/m 0 min 0 min 0,6 UV-I 170 W/m 56,5 km/h (7 Bft)
17.08.2014 16:00 16,9 C 16,1 C 77 % 1009,0 hPa 0,0 l/m 0 min 0 min 0,6 UV-I 201 W/m 74,2 km/h (8 Bft)
17.08.2014 16:02 17,0 C 16,7 C 79 % 1009,0 hPa 0,0 l/m 2 min 0 min 1,4 UV-I 327 W/m 60,2 km/h (7 Bft)
17.08.2014 16:04 17,2 C 16,7 C 78 % 1009,0 hPa 0,0 l/m 2 min 0 min 1,9 UV-I 416 W/m 42,4 km/h (6 Bft)
17.08.2014 16:06 17,4 C 17,2 C 78 % 1009,0 hPa 0,0 l/m 2 min 0 min 2,2 UV-I 405 W/m 53,0 km/h (7 Bft)
17.08.2014 16:08 17,7 C 17,2 C 77 % 1008,9 hPa 0,0 l/m 2 min 0 min 2,6 UV-I 456 W/m 42,4 km/h (6 Bft)
17.08.2014 16:10 17,9 C 17,8 C 78 % 1008,9 hPa 0,0 l/m 2 min 0 min 2,7 UV-I 530 W/m 49,5 km/h (6 Bft)
17.08.2014 16:12 18,2 C 17,8 C 76 % 1008,8 hPa 0,0 l/m 2 min 0 min 2,7 UV-I 611 W/m 49,5 km/h (6 Bft)
17.08.2014 16:14 18,3 C 17,8 C 74 % 1008,8 hPa 0,0 l/m 2 min 0 min 2,4 UV-I 567 W/m 81,2 km/h (9 Bft)
17.08.2014 16:16 18,3 C 17,8 C 74 % 1008,8 hPa 0,0 l/m 2 min 0 min 2,4 UV-I 559 W/m 63,7 km/h (8 Bft)
17.08.2014 16:18 18,4 C 17,8 C 74 % 1008,7 hPa 0,0 l/m 2 min 0 min 2,2 UV-I 566 W/m 46,0 km/h (6 Bft)
17.08.2014 16:20 18,4 C 17,2 C 72 % 1008,6 hPa 0,0 l/m 2 min 0 min 1,8 UV-I 494 W/m 81,2 km/h (9 Bft)
17.08.2014 16:22 18,3 C 17,2 C 73 % 1008,6 hPa 0,0 l/m 0 min 0 min 1,8 UV-I 289 W/m 67,1 km/h (8 Bft)
17.08.2014 16:24 18,3 C 17,2 C 74 % 1008,7 hPa 0,0 l/m 0 min 0 min 1,5 UV-I 271 W/m 67,1 km/h (8 Bft)
17.08.2014 16:26 18,2 C 17,2 C 73 % 1008,6 hPa 0,0 l/m 0 min 0 min 1,3 UV-I 255 W/m 77,7 km/h (9 Bft)
17.08.2014 16:28 18,2 C 17,2 C 73 % 1008,5 hPa 0,0 l/m 0 min 0 min 1,2 UV-I 281 W/m 60,2 km/h (7 Bft)
17.08.2014 16:30 18,1 C 17,2 C 73 % 1008,5 hPa 0,0 l/m 0 min 0 min 1,1 UV-I 259 W/m 56,5 km/h (7 Bft)
17.08.2014 16:32 18,1 C 17,2 C 73 % 1008,5 hPa 0,0 l/m 0 min 0 min 1,0 UV-I 263 W/m 63,7 km/h (8 Bft)
17.08.2014 16:34 18,1 C 17,2 C 74 % 1008,5 hPa 0,0 l/m 0 min 0 min 1,0 UV-I 252 W/m 53,0 km/h (7 Bft)
17.08.2014 16:36 18,2 C 17,8 C 74 % 1008,5 hPa 0,0 l/m 2 min 0 min 1,2 UV-I 345 W/m 38,9 km/h (6 Bft)
17.08.2014 16:38 18,4 C 17,8 C 74 % 1008,5 hPa 0,0 l/m 2 min 0 min 1,4 UV-I 376 W/m 49,5 km/h (6 Bft)
17.08.2014 16:40 18,5 C 17,8 C 73 % 1008,5 hPa 0,0 l/m 0 min 0 min 1,1 UV-I 266 W/m 67,1 km/h (8 Bft)
17.08.2014 16:42 18,4 C 17,8 C 73 % 1008,5 hPa 0,0 l/m 0 min 0 min 0,9 UV-I 226 W/m 77,7 km/h (9 Bft)
17.08.2014 16:44 18,4 C 17,8 C 72 % 1008,3 hPa 0,0 l/m 2 min 0 min 1,2 UV-I 315 W/m 77,7 km/h (9 Bft)
17.08.2014 16:46 18,6 C 17,8 C 73 % 1008,3 hPa 0,0 l/m 2 min 0 min 1,4 UV-I 314 W/m 53,0 km/h (7 Bft)
17.08.2014 16:48 18,6 C 17,8 C 73 % 1008,4 hPa 0,0 l/m 0 min 0 min 0,8 UV-I 234 W/m 49,5 km/h (6 Bft)
17.08.2014 16:50 18,6 C 17,8 C 72 % 1008,4 hPa 0,0 l/m 0 min 0 min 0,4 UV-I 172 W/m 84,9 km/h (9 Bft)
17.08.2014 16:52 18,4 C 17,2 C 72 % 1008,3 hPa 0,0 l/m 0 min 0 min 0,0 UV-I 138 W/m 67,1 km/h (8 Bft)
17.08.2014 16:54 18,3 C 17,2 C 72 % 1008,2 hPa 0,0 l/m 0 min 0 min 0,0 UV-I 127 W/m 88,4 km/h (10 Bft)
17.08.2014 16:56 18,2 C 16,7 C 73 % 1008,4 hPa 0,0 l/m 0 min 0 min 0,0 UV-I 134 W/m 60,2 km/h (7 Bft)
17.08.2014 16:58 18,1 C 16,7 C 73 % 1008,2 hPa 0,0 l/m 0 min 0 min 0,0 UV-I 165 W/m 70,6 km/h (8 Bft)
17.08.2014 17:00 18,1 C 16,7 C 73 % 1008,2 hPa 0,0 l/m 0 min 0 min 0,3 UV-I 222 W/m 63,7 km/h (8 Bft)
17.08.2014 17:02 18,1 C 16,7 C 73 % 1008,2 hPa 0,0 l/m 0 min 0 min 0,2 UV-I 162 W/m 60,2 km/h (7 Bft)
17.08.2014 17:04 18,1 C 16,7 C 74 % 1008,3 hPa 0,0 l/m 0 min 0 min 0,0 UV-I 102 W/m 67,1 km/h (8 Bft)
17.08.2014 17:06 18,0 C 16,7 C 74 % 1008,2 hPa 0,0 l/m 0 min 0 min 0,0 UV-I 88 W/m 67,1 km/h (8 Bft)
17.08.2014 17:08 17,9 C 16,7 C 74 % 1008,3 hPa 0,0 l/m 0 min 0 min 0,0 UV-I 92 W/m 63,7 km/h (8 Bft)
17.08.2014 17:10 17,9 C 16,7 C 74 % 1008,3 hPa 0,0 l/m 0 min 0 min 0,0 UV-I 86 W/m 70,6 km/h (8 Bft)
17.08.2014 17:12 17,8 C 16,7 C 74 % 1008,3 hPa 0,0 l/m 0 min 0 min 0,0 UV-I 120 W/m 60,2 km/h (7 Bft)
17.08.2014 17:14 17,8 C 16,7 C 75 % 1008,2 hPa 0,0 l/m 0 min 0 min 0,1 UV-I 206 W/m 67,1 km/h (8 Bft)
17.08.2014 17:16 17,9 C 17,2 C 75 % 1008,1 hPa 0,0 l/m 0 min 0 min 0,6 UV-I 258 W/m 63,7 km/h (8 Bft)
17.08.2014 17:18 18,0 C 17,2 C 74 % 1008,1 hPa 0,0 l/m 2 min 0 min 0,6 UV-I 283 W/m 84,9 km/h (9 Bft)
17.08.2014 17:20 18,1 C 17,2 C 74 % 1008,1 hPa 0,0 l/m 2 min 0 min 0,8 UV-I 311 W/m 56,5 km/h (7 Bft)
17.08.2014 17:22 18,1 C 17,2 C 74 % 1008,0 hPa 0,0 l/m 0 min 0 min 0,8 UV-I 250 W/m 67,1 km/h (8 Bft)
17.08.2014 17:24 18,1 C 17,2 C 74 % 1008,0 hPa 0,0 l/m 0 min 0 min 0,7 UV-I 233 W/m 74,2 km/h (8 Bft)
17.08.2014 17:26 18,1 C 17,2 C 74 % 1008,1 hPa 0,0 l/m 0 min 0 min 0,4 UV-I 177 W/m 70,6 km/h (8 Bft)
17.08.2014 17:28 18,0 C 16,7 C 74 % 1008,0 hPa 0,0 l/m 0 min 0 min 0,0 UV-I 198 W/m 99,1 km/h (10 Bft)
17.08.2014 17:30 18,0 C 16,7 C 74 % 1008,0 hPa 0,0 l/m 0 min 0 min 0,4 UV-I 229 W/m 84,9 km/h (9 Bft)
17.08.2014 17:32 17,9 C 17,2 C 75 % 1007,9 hPa 0,0 l/m 0 min 0 min 0,6 UV-I 232 W/m 74,2 km/h (8 Bft)
17.08.2014 17:34 18,0 C 17,2 C 75 % 1007,8 hPa 0,0 l/m 2 min 0 min 0,8 UV-I 505 W/m 60,2 km/h (7 Bft)
17.08.2014 17:36 18,2 C 17,2 C 75 % 1007,9 hPa 0,0 l/m 2 min 0 min 0,7 UV-I 468 W/m 60,2 km/h (7 Bft)
17.08.2014 17:38 18,3 C 17,2 C 74 % 1007,9 hPa 0,0 l/m 2 min 0 min 0,6 UV-I 355 W/m 67,1 km/h (8 Bft)
17.08.2014 17:40 18,3 C 16,7 C 74 % 1007,9 hPa 0,0 l/m 0 min 0 min 0,3 UV-I 137 W/m 77,7 km/h (9 Bft)
17.08.2014 17:42 18,1 C 16,7 C 74 % 1008,1 hPa 0,0 l/m 0 min 0 min 0,0 UV-I 123 W/m 70,6 km/h (8 Bft)
17.08.2014 17:44 18,1 C 16,7 C 74 % 1008,0 hPa 0,0 l/m 0 min 0 min 0,0 UV-I 123 W/m 67,1 km/h (8 Bft)
17.08.2014 17:46 18,1 C 16,7 C 74 % 1007,9 hPa 0,0 l/m 2 min 0 min 0,2 UV-I 271 W/m 60,2 km/h (7 Bft)
17.08.2014 17:48 18,1 C 17,2 C 75 % 1007,9 hPa 0,0 l/m 2 min 0 min 0,5 UV-I 227 W/m 60,2 km/h (7 Bft)
17.08.2014 17:50 18,2 C 17,2 C 74 % 1007,9 hPa 0,0 l/m 2 min 0 min 0,5 UV-I 393 W/m 56,5 km/h (7 Bft)
17.08.2014 17:52 18,2 C 16,7 C 74 % 1007,9 hPa 0,0 l/m 2 min 0 min 0,0 UV-I 354 W/m 56,5 km/h (7 Bft)
17.08.2014 17:54 18,1 C 16,7 C 74 % 1007,9 hPa 0,0 l/m 0 min 0 min 0,0 UV-I 143 W/m 84,9 km/h (9 Bft)
17.08.2014 17:56 18,0 C 16,7 C 74 % 1007,9 hPa 0,0 l/m 0 min 0 min 0,0 UV-I 171 W/m 74,2 km/h (8 Bft)
17.08.2014 17:58 17,9 C 16,7 C 74 % 1007,9 hPa 0,0 l/m 0 min 0 min 0,0 UV-I 157 W/m 74,2 km/h (8 Bft)
17.08.2014 18:00 17,9 C 16,7 C 74 % 1007,9 hPa 0,0 l/m 0 min 0 min 0,0 UV-I 152 W/m 88,4 km/h (10 Bft)
17.08.2014 18:02 17,8 C 16,7 C 75 % 1007,8 hPa 0,0 l/m 0 min 0 min 0,0 UV-I 145 W/m 77,7 km/h (9 Bft)
17.08.2014 18:06 17,7 C 16,7 C 75 % 1007,8 hPa 0,0 l/m 0 min 0 min 0,0 UV-I 102 W/m 77,7 km/h (9 Bft)
17.08.2014 18:08 17,7 C 16,1 C 75 % 1007,8 hPa 0,0 l/m 0 min 0 min 0,0 UV-I 90 W/m 70,6 km/h (8 Bft)
17.08.2014 18:10 17,6 C 16,1 C 75 % 1007,8 hPa 0,0 l/m 0 min 0 min 0,0 UV-I 83 W/m 56,5 km/h (7 Bft)
17.08.2014 18:12 17,6 C 16,1 C 76 % 1007,7 hPa 0,0 l/m 0 min 0 min 0,0 UV-I 85 W/m 53,0 km/h (7 Bft)
17.08.2014 18:14 17,5 C 16,1 C 76 % 1007,7 hPa 0,0 l/m 0 min 0 min 0,0 UV-I 83 W/m 60,2 km/h (7 Bft)
17.08.2014 18:16 17,4 C 16,1 C 76 % 1007,7 hPa 0,0 l/m 0 min 0 min 0,0 UV-I 66 W/m 81,2 km/h (9 Bft)
17.08.2014 18:18 17,4 C 16,1 C 76 % 1007,7 hPa 0,0 l/m 0 min 0 min 0,0 UV-I 50 W/m 77,7 km/h (9 Bft)
17.08.2014 18:20 17,3 C 16,1 C 76 % 1007,6 hPa 0,0 l/m 0 min 0 min 0,0 UV-I 49 W/m 77,7 km/h (9 Bft)
17.08.2014 18:22 17,2 C 16,1 C 76 % 1007,6 hPa 0,0 l/m 0 min 0 min 0,0 UV-I 59 W/m 63,7 km/h (8 Bft)
17.08.2014 18:24 17,2 C 16,1 C 77 % 1007,6 hPa 0,0 l/m 0 min 0 min 0,0 UV-I 89 W/m 60,2 km/h (7 Bft)
17.08.2014 18:26 17,2 C 16,1 C 77 % 1007,6 hPa 0,0 l/m 0 min 0 min 0,0 UV-I 94 W/m 49,5 km/h (6 Bft)
17.08.2014 18:28 17,2 C 16,1 C 77 % 1007,6 hPa 0,0 l/m 0 min 0 min 0,0 UV-I 82 W/m 70,6 km/h (8 Bft)
17.08.2014 18:30 17,2 C 16,1 C 77 % 1007,8 hPa 0,0 l/m 0 min 0 min 0,0 UV-I 102 W/m 63,7 km/h (8 Bft)
17.08.2014 18:32 17,2 C 16,1 C 78 % 1007,7 hPa 0,0 l/m 0 min 0 min 0,0 UV-I 103 W/m 46,0 km/h (6 Bft)
17.08.2014 18:34 17,2 C 15,6 C 78 % 1007,7 hPa 0,0 l/m 0 min 0 min 0,0 UV-I 93 W/m 74,2 km/h (8 Bft)
17.08.2014 18:36 17,1 C 15,6 C 79 % 1007,7 hPa 0,0 l/m 0 min 0 min 0,0 UV-I 82 W/m 77,7 km/h (9 Bft)
17.08.2014 18:38 17,0 C 15,6 C 79 % 1007,7 hPa 0,0 l/m 0 min 0 min 0,0 UV-I 87 W/m 42,4 km/h (6 Bft)
17.08.2014 18:40 16,9 C 15,6 C 80 % 1007,8 hPa 0,0 l/m 0 min 0 min 0,0 UV-I 98 W/m 67,1 km/h (8 Bft)
17.08.2014 18:42 16,8 C 15,6 C 80 % 1007,7 hPa 0,0 l/m 0 min 0 min 0,0 UV-I 91 W/m 74,2 km/h (8 Bft)
17.08.2014 18:44 16,7 C 15,6 C 81 % 1007,7 hPa 0,0 l/m 0 min 0 min 0,0 UV-I 72 W/m 53,0 km/h (7 Bft)
17.08.2014 18:46 16,7 C 15,6 C 81 % 1007,6 hPa 0,0 l/m 0 min 0 min 0,0 UV-I 50 W/m 49,5 km/h (6 Bft)
17.08.2014 18:48 16,7 C 15,6 C 81 % 1007,6 hPa 0,0 l/m 0 min 0 min 0,0 UV-I 46 W/m 46,0 km/h (6 Bft)
17.08.2014 18:50 16,6 C 15,6 C 82 % 1007,6 hPa 0,0 l/m 0 min 0 min 0,0 UV-I 52 W/m 49,5 km/h (6 Bft)
17.08.2014 18:52 16,6 C 15,0 C 82 % 1007,5 hPa 0,0 l/m 0 min 2 min 0,0 UV-I 56 W/m 38,9 km/h (6 Bft)
17.08.2014 18:54 16,6 C 15,0 C 82 % 1007,5 hPa 0,0 l/m 0 min 0 min 0,0 UV-I 64 W/m 31,7 km/h (5 Bft)
17.08.2014 18:56 16,6 C 15,0 C 82 % 1007,6 hPa 0,0 l/m 0 min 2 min 0,0 UV-I 74 W/m 77,7 km/h (9 Bft)
17.08.2014 18:58 16,5 C 14,4 C 83 % 1007,5 hPa 0,0 l/m 0 min 2 min 0,0 UV-I 44 W/m 67,1 km/h (8 Bft)
17.08.2014 19:00 16,4 C 14,4 C 83 % 1007,6 hPa 0,0 l/m 0 min 2 min 0,0 UV-I 27 W/m 81,2 km/h (9 Bft)
17.08.2014 19:02 16,3 C 13,9 C 84 % 1007,7 hPa 0,0 l/m 0 min 2 min 0,0 UV-I 22 W/m 56,5 km/h (7 Bft)
17.08.2014 19:04 16,1 C 13,3 C 86 % 1007,7 hPa 0,4 l/m 0 min 2 min 0,0 UV-I 24 W/m 53,0 km/h (7 Bft)
17.08.2014 19:06 15,8 C 13,3 C 87 % 1007,6 hPa 0,2 l/m 0 min 2 min 0,0 UV-I 58 W/m 67,1 km/h (8 Bft)
17.08.2014 19:08 15,6 C 13,3 C 88 % 1007,5 hPa 0,0 l/m 0 min 2 min 0,0 UV-I 99 W/m 60,2 km/h (7 Bft)
17.08.2014 19:10 15,3 C 13,3 C 90 % 1007,5 hPa 0,0 l/m 0 min 2 min 0,0 UV-I 105 W/m 60,2 km/h (7 Bft)
17.08.2014 19:12 15,2 C 13,3 C 90 % 1007,4 hPa 0,0 l/m 2 min 0 min 0,0 UV-I 171 W/m 60,2 km/h (7 Bft)
17.08.2014 19:14 15,1 C 13,3 C 91 % 1007,3 hPa 0,0 l/m 2 min 0 min 0,0 UV-I 162 W/m 46,0 km/h (6 Bft)
17.08.2014 19:16 15,1 C 13,3 C 92 % 1007,3 hPa 0,0 l/m 2 min 0 min 0,0 UV-I 129 W/m 38,9 km/h (6 Bft)
17.08.2014 19:18 15,1 C 13,3 C 92 % 1007,3 hPa 0,0 l/m 2 min 0 min 0,0 UV-I 119 W/m 35,4 km/h (5 Bft)
17.08.2014 19:20 15,1 C 13,3 C 92 % 1007,3 hPa 0,0 l/m 2 min 0 min 0,0 UV-I 113 W/m 56,5 km/h (7 Bft)
17.08.2014 19:22 15,0 C 13,3 C 93 % 1007,3 hPa 0,0 l/m 0 min 0 min 0,0 UV-I 89 W/m 53,0 km/h (7 Bft)
17.08.2014 19:24 15,0 C 13,3 C 93 % 1007,2 hPa 0,0 l/m 0 min 0 min 0,0 UV-I 60 W/m 56,5 km/h (7 Bft)
17.08.2014 19:26 15,0 C 13,3 C 92 % 1007,2 hPa 0,0 l/m 0 min 0 min 0,0 UV-I 65 W/m 63,7 km/h (8 Bft)
17.08.2014 19:28 14,9 C 12,8 C 92 % 1007,1 hPa 0,0 l/m 0 min 0 min 0,0 UV-I 43 W/m 49,5 km/h (6 Bft)
17.08.2014 19:30 14,9 C 12,8 C 92 % 1007,2 hPa 0,0 l/m 0 min 0 min 0,0 UV-I 42 W/m 46,0 km/h (6 Bft)
17.08.2014 19:32 14,9 C 12,8 C 92 % 1007,2 hPa 0,0 l/m 0 min 0 min 0,0 UV-I 41 W/m 67,1 km/h (8 Bft)
17.08.2014 19:34 14,8 C 12,8 C 92 % 1007,2 hPa 0,0 l/m 0 min 0 min 0,0 UV-I 39 W/m 38,9 km/h (6 Bft)
17.08.2014 19:36 14,8 C 12,8 C 92 % 1007,2 hPa 0,0 l/m 0 min 0 min 0,0 UV-I 40 W/m 42,4 km/h (6 Bft)
17.08.2014 19:38 14,8 C 12,8 C 93 % 1007,1 hPa 0,0 l/m 0 min 0 min 0,0 UV-I 44 W/m 56,5 km/h (7 Bft)
17.08.2014 19:40 14,8 C 12,8 C 93 % 1007,0 hPa 0,0 l/m 0 min 0 min 0,0 UV-I 50 W/m 42,4 km/h (6 Bft)
17.08.2014 19:42 14,8 C 13,3 C 93 % 1007,0 hPa 0,0 l/m 0 min 0 min 0,0 UV-I 58 W/m 56,5 km/h (7 Bft)
17.08.2014 19:44 14,8 C 13,3 C 93 % 1007,0 hPa 0,0 l/m 0 min 0 min 0,0 UV-I 60 W/m 49,5 km/h (6 Bft)
17.08.2014 19:46 14,8 C 13,3 C 93 % 1007,0 hPa 0,0 l/m 0 min 0 min 0,0 UV-I 66 W/m 42,4 km/h (6 Bft)
17.08.2014 19:48 14,8 C 13,3 C 93 % 1007,0 hPa 0,0 l/m 0 min 0 min 0,0 UV-I 65 W/m 35,4 km/h (5 Bft)
17.08.2014 19:50 14,8 C 13,3 C 93 % 1007,0 hPa 0,0 l/m 0 min 0 min 0,0 UV-I 55 W/m 42,4 km/h (6 Bft)
17.08.2014 19:52 14,8 C 13,3 C 93 % 1007,1 hPa 0,0 l/m 0 min 0 min 0,0 UV-I 41 W/m 42,4 km/h (6 Bft)
17.08.2014 19:54 14,8 C 13,3 C 93 % 1007,0 hPa 0,0 l/m 0 min 0 min 0,0 UV-I 29 W/m 38,9 km/h (6 Bft)
17.08.2014 19:56 14,8 C 13,3 C 93 % 1007,0 hPa 0,0 l/m 0 min 0 min 0,0 UV-I 21 W/m 49,5 km/h (6 Bft)
17.08.2014 19:58 14,8 C 13,3 C 93 % 1007,0 hPa 0,0 l/m 0 min 0 min 0,0 UV-I 23 W/m 38,9 km/h (6 Bft)
17.08.2014 20:00 14,9 C 13,3 C 93 % 1007,0 hPa 0,0 l/m 0 min 0 min 0,0 UV-I 21 W/m 49,5 km/h (6 Bft)
17.08.2014 20:02 14,9 C 12,8 C 93 % 1007,0 hPa 0,0 l/m 0 min 0 min 0,0 UV-I 17 W/m 56,5 km/h (7 Bft)
17.08.2014 20:04 14,9 C 12,8 C 92 % 1007,0 hPa 0,0 l/m 0 min 0 min 0,0 UV-I 20 W/m 38,9 km/h (6 Bft)
17.08.2014 20:06 14,9 C 13,3 C 93 % 1006,9 hPa 0,0 l/m 0 min 0 min 0,0 UV-I 30 W/m 35,4 km/h (5 Bft)
17.08.2014 20:08 14,9 C 12,8 C 92 % 1006,9 hPa 0,0 l/m 0 min 0 min 0,0 UV-I 26 W/m 53,0 km/h (7 Bft)
17.08.2014 20:10 15,0 C 12,8 C 92 % 1006,8 hPa 0,0 l/m 0 min 0 min 0,0 UV-I 26 W/m 35,4 km/h (5 Bft)
17.08.2014 20:12 15,0 C 12,8 C 92 % 1006,8 hPa 0,0 l/m 0 min 0 min 0,0 UV-I 19 W/m 42,4 km/h (6 Bft)
17.08.2014 20:14 15,0 C 12,8 C 92 % 1006,8 hPa 0,0 l/m 0 min 0 min 0,0 UV-I 18 W/m 28,2 km/h (4 Bft)
17.08.2014 20:16 15,1 C 12,8 C 91 % 1006,8 hPa 0,0 l/m 0 min 0 min 0,0 UV-I 14 W/m 53,0 km/h (7 Bft)
17.08.2014 20:18 15,1 C 12,8 C 91 % 1006,7 hPa 0,0 l/m 0 min 0 min 0,0 UV-I 11 W/m 56,5 km/h (7 Bft)
17.08.2014 20:20 15,1 C 12,8 C 91 % 1006,7 hPa 0,0 l/m 0 min 0 min 0,0 UV-I 11 W/m 49,5 km/h (6 Bft)
17.08.2014 20:22 15,2 C 12,8 C 90 % 1006,7 hPa 0,0 l/m 0 min 0 min 0,0 UV-I 13 W/m 35,4 km/h (5 Bft)
17.08.2014 20:24 15,2 C 12,8 C 90 % 1006,7 hPa 0,0 l/m 0 min 0 min 0,0 UV-I 11 W/m 63,7 km/h (8 Bft)
17.08.2014 20:26 15,2 C 12,8 C 90 % 1006,6 hPa 0,0 l/m 0 min 0 min 0,0 UV-I 6 W/m 28,2 km/h (4 Bft)
17.08.2014 20:28 15,2 C 12,8 C 89 % 1006,7 hPa 0,0 l/m 0 min 0 min 0,0 UV-I 5 W/m 49,5 km/h (6 Bft)
17.08.2014 20:30 15,2 C 12,8 C 89 % 1006,7 hPa 0,0 l/m 0 min 0 min 0,0 UV-I 7 W/m 42,4 km/h (6 Bft)
17.08.2014 20:32 15,3 C 12,8 C 89 % 1006,6 hPa 0,0 l/m 0 min 0 min 0,0 UV-I 7 W/m 31,7 km/h (5 Bft)
17.08.2014 20:34 15,3 C 12,8 C 89 % 1006,6 hPa 0,0 l/m 0 min 0 min 0,0 UV-I 9 W/m 31,7 km/h (5 Bft)
17.08.2014 20:36 15,2 C 12,8 C 89 % 1006,5 hPa 0,0 l/m 0 min 0 min 0,0 UV-I 9 W/m 38,9 km/h (6 Bft)
17.08.2014 20:38 15,2 C 12,8 C 89 % 1006,5 hPa 0,0 l/m 0 min 0 min 0,0 UV-I 9 W/m 42,4 km/h (6 Bft)
17.08.2014 20:40 15,2 C 12,8 C 88 % 1006,5 hPa 0,0 l/m 0 min 0 min 0,0 UV-I 7 W/m 53,0 km/h (7 Bft)
17.08.2014 20:42 15,2 C 12,8 C 88 % 1006,5 hPa 0,0 l/m 0 min 0 min 0,0 UV-I 7 W/m 35,4 km/h (5 Bft)
17.08.2014 20:44 15,2 C 12,8 C 88 % 1006,5 hPa 0,0 l/m 0 min 0 min 0,0 UV-I 7 W/m 42,4 km/h (6 Bft)
17.08.2014 20:46 15,2 C 12,8 C 88 % 1006,5 hPa 0,0 l/m 0 min 0 min 0,0 UV-I 7 W/m 31,7 km/h (5 Bft)
17.08.2014 20:48 15,2 C 12,8 C 88 % 1006,4 hPa 0,0 l/m 0 min 0 min 0,0 UV-I 0 W/m 35,4 km/h (5 Bft)
17.08.2014 20:50 15,2 C 12,8 C 88 % 1006,4 hPa 0,0 l/m 0 min 0 min 0,0 UV-I 0 W/m 53,0 km/h (7 Bft)
17.08.2014 20:52 15,2 C 12,8 C 88 % 1006,5 hPa 0,0 l/m 0 min 0 min 0,0 UV-I 0 W/m 35,4 km/h (5 Bft)
17.08.2014 20:54 15,2 C 12,8 C 88 % 1006,5 hPa 0,0 l/m 0 min 0 min 0,0 UV-I 0 W/m 60,2 km/h (7 Bft)
17.08.2014 20:56 15,2 C 12,8 C 88 % 1006,5 hPa 0,0 l/m 0 min 0 min 0,0 UV-I 0 W/m 70,6 km/h (8 Bft)
17.08.2014 20:58 15,3 C 12,8 C 88 % 1006,5 hPa 0,0 l/m 0 min 0 min 0,0 UV-I 0 W/m 81,2 km/h (9 Bft)
17.08.2014 21:00 15,3 C 12,8 C 88 % 1006,5 hPa 0,0 l/m 0 min 0 min 0,0 UV-I 0 W/m 63,7 km/h (8 Bft)
17.08.2014 21:02 15,3 C 12,8 C 88 % 1006,5 hPa 0,0 l/m 0 min 0 min 0,0 UV-I 0 W/m 67,1 km/h (8 Bft)
17.08.2014 21:04 15,3 C 12,8 C 88 % 1006,5 hPa 0,0 l/m 0 min 2 min 0,0 UV-I 0 W/m 70,6 km/h (8 Bft)
17.08.2014 21:06 15,3 C 12,8 C 88 % 1006,5 hPa 0,0 l/m 0 min 2 min 0,0 UV-I 0 W/m 67,1 km/h (8 Bft)
17.08.2014 21:08 15,3 C 12,8 C 88 % 1006,4 hPa 0,0 l/m 0 min 0 min 0,0 UV-I 0 W/m 60,2 km/h (7 Bft)
17.08.2014 21:10 15,3 C 12,8 C 88 % 1006,5 hPa 0,0 l/m 0 min 0 min 0,0 UV-I 0 W/m 42,4 km/h (6 Bft)
17.08.2014 21:12 15,3 C 12,8 C 88 % 1006,5 hPa 0,0 l/m 0 min 0 min 0,0 UV-I 0 W/m 53,0 km/h (7 Bft)
17.08.2014 21:14 15,3 C 12,8 C 88 % 1006,4 hPa 0,0 l/m 0 min 0 min 0,0 UV-I 0 W/m 49,5 km/h (6 Bft)
17.08.2014 21:16 15,3 C 12,8 C 88 % 1006,4 hPa 0,0 l/m 0 min 0 min 0,0 UV-I 0 W/m 42,4 km/h (6 Bft)
17.08.2014 21:18 15,2 C 12,8 C 88 % 1006,3 hPa 0,0 l/m 0 min 0 min 0,0 UV-I 0 W/m 49,5 km/h (6 Bft)
17.08.2014 21:20 15,3 C 12,8 C 88 % 1006,4 hPa 0,0 l/m 0 min 0 min 0,0 UV-I 0 W/m 56,5 km/h (7 Bft)
17.08.2014 21:22 15,2 C 12,8 C 88 % 1006,5 hPa 0,0 l/m 0 min 0 min 0,0 UV-I 0 W/m 49,5 km/h (6 Bft)
17.08.2014 21:24 15,3 C 12,8 C 88 % 1006,5 hPa 0,0 l/m 0 min 0 min 0,0 UV-I 0 W/m 56,5 km/h (7 Bft)
17.08.2014 21:26 15,3 C 12,8 C 87 % 1006,4 hPa 0,0 l/m 0 min 0 min 0,0 UV-I 0 W/m 56,5 km/h (7 Bft)
17.08.2014 21:28 15,3 C 12,8 C 87 % 1006,4 hPa 0,0 l/m 0 min 0 min 0,0 UV-I 0 W/m 60,2 km/h (7 Bft)
17.08.2014 21:30 15,3 C 12,8 C 87 % 1006,4 hPa 0,0 l/m 0 min 0 min 0,0 UV-I 0 W/m 49,5 km/h (6 Bft)
17.08.2014 21:32 15,3 C 12,8 C 87 % 1006,4 hPa 0,0 l/m 0 min 0 min 0,0 UV-I 0 W/m 49,5 km/h (6 Bft)
17.08.2014 21:34 15,3 C 12,8 C 87 % 1006,5 hPa 0,0 l/m 0 min 0 min 0,0 UV-I 0 W/m 38,9 km/h (6 Bft)
17.08.2014 21:36 15,3 C 12,8 C 87 % 1006,4 hPa 0,0 l/m 0 min 0 min 0,0 UV-I 0 W/m 42,4 km/h (6 Bft)
17.08.2014 21:38 15,3 C 12,8 C 87 % 1006,4 hPa 0,0 l/m 0 min 0 min 0,0 UV-I 0 W/m 60,2 km/h (7 Bft)
17.08.2014 21:40 15,3 C 12,8 C 87 % 1006,4 hPa 0,0 l/m 0 min 0 min 0,0 UV-I 0 W/m 42,4 km/h (6 Bft)
17.08.2014 21:42 15,4 C 12,8 C 87 % 1006,3 hPa 0,0 l/m 0 min 0 min 0,0 UV-I 0 W/m 49,5 km/h (6 Bft)
17.08.2014 21:44 15,4 C 12,8 C 87 % 1006,4 hPa 0,0 l/m 0 min 0 min 0,0 UV-I 0 W/m 60,2 km/h (7 Bft)
17.08.2014 21:46 15,4 C 12,8 C 86 % 1006,4 hPa 0,0 l/m 0 min 0 min 0,0 UV-I 0 W/m 38,9 km/h (6 Bft)
17.08.2014 21:48 15,4 C 12,8 C 87 % 1006,4 hPa 0,0 l/m 0 min 0 min 0,0 UV-I 0 W/m 56,5 km/h (7 Bft)
17.08.2014 21:50 15,4 C 12,8 C 86 % 1006,3 hPa 0,0 l/m 0 min 2 min 0,0 UV-I 0 W/m 67,1 km/h (8 Bft)
17.08.2014 21:52 15,4 C 12,8 C 86 % 1006,3 hPa 0,0 l/m 0 min 2 min 0,0 UV-I 0 W/m 49,5 km/h (6 Bft)
17.08.2014 21:54 15,4 C 12,8 C 86 % 1006,3 hPa 0,0 l/m 0 min 2 min 0,0 UV-I 0 W/m 35,4 km/h (5 Bft)
17.08.2014 21:56 15,4 C 12,8 C 86 % 1006,2 hPa 0,0 l/m 0 min 0 min 0,0 UV-I 0 W/m 67,1 km/h (8 Bft)
17.08.2014 21:58 15,4 C 12,8 C 86 % 1006,4 hPa 0,0 l/m 0 min 2 min 0,0 UV-I 0 W/m 56,5 km/h (7 Bft)
17.08.2014 22:00 15,4 C 12,8 C 87 % 1006,3 hPa 0,0 l/m 0 min 2 min 0,0 UV-I 0 W/m 67,1 km/h (8 Bft)
17.08.2014 22:02 15,3 C 12,8 C 87 % 1006,3 hPa 0,2 l/m 0 min 2 min 0,0 UV-I 0 W/m 67,1 km/h (8 Bft)
17.08.2014 22:04 15,2 C 12,8 C 88 % 1006,4 hPa 0,0 l/m 0 min 2 min 0,0 UV-I 0 W/m 46,0 km/h (6 Bft)
17.08.2014 22:06 15,1 C 12,8 C 88 % 1006,6 hPa 0,2 l/m 0 min 2 min 0,0 UV-I 0 W/m 53,0 km/h (7 Bft)
17.08.2014 22:08 14,9 C 12,8 C 89 % 1007,1 hPa 0,0 l/m 0 min 2 min 0,0 UV-I 0 W/m 53,0 km/h (7 Bft)
17.08.2014 22:10 14,7 C 12,2 C 90 % 1007,1 hPa 1,2 l/m 0 min 2 min 0,0 UV-I 0 W/m 88,4 km/h (10 Bft)
17.08.2014 22:12 14,3 C 12,2 C 90 % 1007,1 hPa 0,8 l/m 0 min 2 min 0,0 UV-I 0 W/m 49,5 km/h (6 Bft)
17.08.2014 22:14 14,1 C 11,7 C 90 % 1007,1 hPa 0,4 l/m 0 min 2 min 0,0 UV-I 0 W/m 31,7 km/h (5 Bft)
17.08.2014 22:16 13,7 C 11,7 C 91 % 1007,1 hPa 0,6 l/m 0 min 2 min 0,0 UV-I 0 W/m 53,0 km/h (7 Bft)
17.08.2014 22:18 13,4 C 11,7 C 91 % 1007,0 hPa 0,6 l/m 0 min 2 min 0,0 UV-I 0 W/m 38,9 km/h (6 Bft)
17.08.2014 22:20 13,1 C 11,1 C 92 % 1006,8 hPa 0,2 l/m 0 min 2 min 0,0 UV-I 0 W/m 38,9 km/h (6 Bft)
17.08.2014 22:22 12,9 C 11,1 C 92 % 1007,0 hPa 0,0 l/m 0 min 2 min 0,0 UV-I 0 W/m 38,9 km/h (6 Bft)
17.08.2014 22:24 12,8 C 11,1 C 93 % 1007,0 hPa 0,0 l/m 0 min 2 min 0,0 UV-I 0 W/m 24,7 km/h (4 Bft)
17.08.2014 22:26 12,7 C 11,1 C 93 % 1007,1 hPa 0,0 l/m 0 min 2 min 0,0 UV-I 0 W/m 28,2 km/h (4 Bft)
17.08.2014 22:28 12,6 C 11,1 C 93 % 1007,1 hPa 0,0 l/m 0 min 2 min 0,0 UV-I 0 W/m 35,4 km/h (5 Bft)
17.08.2014 22:30 12,6 C 11,1 C 94 % 1007,0 hPa 0,2 l/m 0 min 2 min 0,0 UV-I 0 W/m 28,2 km/h (4 Bft)
17.08.2014 22:32 12,6 C 11,7 C 94 % 1007,0 hPa 0,0 l/m 0 min 2 min 0,0 UV-I 0 W/m 24,7 km/h (4 Bft)
17.08.2014 22:34 12,7 C 11,7 C 94 % 1007,1 hPa 0,0 l/m 0 min 2 min 0,0 UV-I 0 W/m 35,4 km/h (5 Bft)
17.08.2014 22:36 12,7 C 11,7 C 95 % 1007,0 hPa 0,0 l/m 0 min 2 min 0,0 UV-I 0 W/m 31,7 km/h (5 Bft)
17.08.2014 22:38 12,7 C 11,7 C 95 % 1007,1 hPa 0,0 l/m 0 min 2 min 0,0 UV-I 0 W/m 46,0 km/h (6 Bft)
17.08.2014 22:40 12,7 C 11,7 C 95 % 1007,0 hPa 0,0 l/m 0 min 2 min 0,0 UV-I 0 W/m 53,0 km/h (7 Bft)
17.08.2014 22:42 12,7 C 11,7 C 95 % 1007,0 hPa 0,0 l/m 0 min 2 min 0,0 UV-I 0 W/m 31,7 km/h (5 Bft)
17.08.2014 22:44 12,7 C 11,7 C 95 % 1006,8 hPa 0,0 l/m 0 min 2 min 0,0 UV-I 0 W/m 35,4 km/h (5 Bft)
17.08.2014 22:46 12,6 C 11,1 C 95 % 1006,8 hPa 0,2 l/m 0 min 2 min 0,0 UV-I 0 W/m 46,0 km/h (6 Bft)
17.08.2014 22:48 12,6 C 11,1 C 95 % 1006,7 hPa 0,0 l/m 0 min 2 min 0,0 UV-I 0 W/m 31,7 km/h (5 Bft)
17.08.2014 22:50 12,6 C 11,1 C 95 % 1006,8 hPa 0,0 l/m 0 min 2 min 0,0 UV-I 0 W/m 42,4 km/h (6 Bft)
17.08.2014 22:52 12,6 C 11,1 C 95 % 1006,8 hPa 0,0 l/m 0 min 2 min 0,0 UV-I 0 W/m 35,4 km/h (5 Bft)
17.08.2014 22:54 12,6 C 11,1 C 95 % 1006,7 hPa 0,2 l/m 0 min 2 min 0,0 UV-I 0 W/m 35,4 km/h (5 Bft)
17.08.2014 22:56 12,5 C 11,1 C 95 % 1006,7 hPa 0,0 l/m 0 min 2 min 0,0 UV-I 0 W/m 35,4 km/h (5 Bft)
17.08.2014 22:58 12,5 C 11,1 C 95 % 1006,7 hPa 0,0 l/m 0 min 2 min 0,0 UV-I 0 W/m 38,9 km/h (6 Bft)
17.08.2014 23:00 12,4 C 11,1 C 96 % 1006,6 hPa 0,0 l/m 0 min 2 min 0,0 UV-I 0 W/m 35,4 km/h (5 Bft)
17.08.2014 23:02 12,4 C 11,1 C 96 % 1006,7 hPa 0,0 l/m 0 min 2 min 0,0 UV-I 0 W/m 31,7 km/h (5 Bft)
17.08.2014 23:04 12,4 C 11,1 C 96 % 1006,6 hPa 0,0 l/m 0 min 2 min 0,0 UV-I 0 W/m 28,2 km/h (4 Bft)
17.08.2014 23:06 12,4 C 11,1 C 96 % 1006,6 hPa 0,0 l/m 0 min 2 min 0,0 UV-I 0 W/m 24,7 km/h (4 Bft)
17.08.2014 23:08 12,4 C 11,1 C 96 % 1006,7 hPa 0,0 l/m 0 min 2 min 0,0 UV-I 0 W/m 24,7 km/h (4 Bft)
17.08.2014 23:10 12,5 C 11,1 C 96 % 1006,6 hPa 0,0 l/m 0 min 2 min 0,0 UV-I 0 W/m 24,7 km/h (4 Bft)
17.08.2014 23:12 12,5 C 11,1 C 96 % 1006,6 hPa 0,0 l/m 0 min 2 min 0,0 UV-I 0 W/m 28,2 km/h (4 Bft)
17.08.2014 23:14 12,6 C 11,7 C 96 % 1006,6 hPa 0,0 l/m 0 min 2 min 0,0 UV-I 0 W/m 28,2 km/h (4 Bft)
17.08.2014 23:16 12,6 C 11,7 C 96 % 1006,6 hPa 0,0 l/m 0 min 2 min 0,0 UV-I 0 W/m 24,7 km/h (4 Bft)
17.08.2014 23:18 12,6 C 11,7 C 96 % 1006,5 hPa 0,0 l/m 0 min 2 min 0,0 UV-I 0 W/m 35,4 km/h (5 Bft)
17.08.2014 23:20 12,7 C 11,7 C 96 % 1006,5 hPa 0,0 l/m 0 min 2 min 0,0 UV-I 0 W/m 28,2 km/h (4 Bft)
17.08.2014 23:22 12,7 C 11,7 C 96 % 1006,5 hPa 0,0 l/m 0 min 2 min 0,0 UV-I 0 W/m 42,4 km/h (6 Bft)
17.08.2014 23:24 12,7 C 11,7 C 96 % 1006,5 hPa 0,2 l/m 0 min 2 min 0,0 UV-I 0 W/m 21,3 km/h (4 Bft)
17.08.2014 23:26 12,8 C 11,7 C 96 % 1006,4 hPa 0,0 l/m 0 min 2 min 0,0 UV-I 0 W/m 35,4 km/h (5 Bft)
17.08.2014 23:28 12,9 C 11,7 C 96 % 1006,5 hPa 0,0 l/m 0 min 2 min 0,0 UV-I 0 W/m 35,4 km/h (5 Bft)
17.08.2014 23:30 12,9 C 11,7 C 96 % 1006,4 hPa 0,0 l/m 0 min 2 min 0,0 UV-I 0 W/m 28,2 km/h (4 Bft)
17.08.2014 23:32 13,0 C 11,7 C 97 % 1006,5 hPa 0,0 l/m 0 min 2 min 0,0 UV-I 0 W/m 38,9 km/h (6 Bft)
17.08.2014 23:34 13,0 C 11,7 C 96 % 1006,4 hPa 0,0 l/m 0 min 2 min 0,0 UV-I 0 W/m 35,4 km/h (5 Bft)
17.08.2014 23:36 13,1 C 11,7 C 96 % 1006,4 hPa 0,0 l/m 0 min 2 min 0,0 UV-I 0 W/m 38,9 km/h (6 Bft)
17.08.2014 23:38 13,1 C 11,7 C 96 % 1006,4 hPa 0,0 l/m 0 min 0 min 0,0 UV-I 0 W/m 35,4 km/h (5 Bft)
17.08.2014 23:40 13,1 C 11,7 C 96 % 1006,3 hPa 0,0 l/m 0 min 0 min 0,0 UV-I 0 W/m 21,3 km/h (4 Bft)
17.08.2014 23:42 13,1 C 11,7 C 96 % 1006,2 hPa 0,0 l/m 0 min 0 min 0,0 UV-I 0 W/m 28,2 km/h (4 Bft)
17.08.2014 23:44 13,2 C 11,7 C 96 % 1006,2 hPa 0,0 l/m 0 min 0 min 0,0 UV-I 0 W/m 35,4 km/h (5 Bft)
17.08.2014 23:46 13,2 C 11,7 C 97 % 1006,3 hPa 0,0 l/m 0 min 0 min 0,0 UV-I 0 W/m 24,7 km/h (4 Bft)
17.08.2014 23:48 13,2 C 11,7 C 97 % 1006,4 hPa 0,0 l/m 0 min 0 min 0,0 UV-I 0 W/m 21,3 km/h (4 Bft)
17.08.2014 23:50 13,3 C 11,7 C 97 % 1006,4 hPa 0,0 l/m 0 min 2 min 0,0 UV-I 0 W/m 38,9 km/h (6 Bft)
17.08.2014 23:52 13,3 C 12,2 C 97 % 1006,4 hPa 0,0 l/m 0 min 2 min 0,0 UV-I 0 W/m 31,7 km/h (5 Bft)
17.08.2014 23:54 13,3 C 12,2 C 97 % 1006,4 hPa 0,0 l/m 0 min 2 min 0,0 UV-I 0 W/m 31,7 km/h (5 Bft)
17.08.2014 23:56 13,4 C 12,2 C 97 % 1006,4 hPa 0,0 l/m 0 min 0 min 0,0 UV-I 0 W/m 38,9 km/h (6 Bft)
17.08.2014 23:58 13,4 C 12,2 C 97 % 1006,4 hPa 0,0 l/m 0 min 2 min 0,0 UV-I 0 W/m 35,4 km/h (5 Bft)
_ Min-Zeit 05:02 00:00 14:48 21:56 - - - - - 00:02
Minimum _ 12,4 C 11,1 C 72 % 1006,2 hPa - - - - - 0,0 km/h (0 Bft)
_ Max-Zeit 14:46 14:42 23:32 00:00 22:10 06:38 11:36 14:40 13:22 15:50
Maximum _ 18,7 C 18,3 C 97 % 1016,8 hPa 1,2 l/m 2 min 2 min 4,1 UV-I 684 W/m 106,1 km/h
W (11 Bft)
Durchschnitt _ 14,9 C 13,7 C 86 % 1011,0 hPa #5,6 l/m #4:48 h #2:34 h 1,4 UV-I 195 W/m 44,3 km/h (6 Bft)
© 2014 W. Hausmann